| time (UTC) | temp C | wind direction | speed KPH | gust KPH | rain 1hr cm | rain 24hr cm | rain mn cm | humidity % | barometer mb |
| 20260506134600 | 15 | 187 | 8.0 | 19.3 | 0.00 | 0.03 | 0.00 | 69 | 1003.6 |
| 20260506134500 | 15 | 181 | 8.0 | 19.3 | 0.00 | 0.03 | 0.00 | 68 | 1003.6 |
| 20260506134401 | 15 | 195 | 6.4 | 19.3 | 0.00 | 0.03 | 0.00 | 67 | 1003.5 |
| 20260506134301 | 15 | 175 | 6.4 | 17.7 | 0.00 | 0.03 | 0.00 | 67 | 1003.5 |
| 20260506134201 | 15 | 221 | 6.4 | 17.7 | 0.00 | 0.03 | 0.00 | 67 | 1003.5 |
| 20260506134101 | 15 | 153 | 4.8 | 17.7 | 0.00 | 0.03 | 0.00 | 66 | 1003.5 |
| 20260506134001 | 15 | 142 | 4.8 | 16.1 | 0.00 | 0.03 | 0.00 | 67 | 1003.5 |
| 20260506133901 | 15 | 158 | 4.8 | 16.1 | 0.00 | 0.03 | 0.00 | 68 | 1003.5 |
| 20260506133800 | 15 | 125 | 3.2 | 16.1 | 0.00 | 0.03 | 0.00 | 69 | 1003.5 |
| 20260506133701 | 15 | 119 | 1.6 | 6.4 | 0.00 | 0.03 | 0.00 | 69 | 1003.5 |
| 20260506133601 | 15 | 121 | 1.6 | 6.4 | 0.00 | 0.03 | 0.00 | 68 | 1003.5 |
| 20260506133501 | 15 | 132 | 1.6 | 4.8 | 0.00 | 0.03 | 0.00 | 69 | 1003.4 |
| 20260506133403 | 15 | 134 | 1.6 | 4.8 | 0.00 | 0.03 | 0.00 | 69 | 1003.4 |
| 20260506133301 | 15 | 134 | 1.6 | 4.8 | 0.00 | 0.03 | 0.00 | 68 | 1003.4 |
| 20260506133201 | 15 | 131 | 1.6 | 4.8 | 0.00 | 0.03 | 0.00 | 68 | 1003.4 |
| 20260506133121 | 15 | 132 | 1.6 | 4.8 | 0.00 | 0.03 | 0.00 | 69 | 1003.4 |
| 20260506133117 | 15 | 179 | 1.6 | 4.8 | 0.00 | 0.03 | 0.00 | 71 | 1003.4 |
| 20260506133113 | 15 | 179 | 1.6 | 4.8 | 0.00 | 0.03 | 0.00 | 69 | 1003.4 |
| 20260506132851 | 15 | 179 | 3.2 | 9.7 | 0.00 | 0.03 | 0.00 | 69 | 1003.3 |
| 20260506132843 | 15 | 179 | 1.6 | 4.8 | 0.00 | 0.03 | 0.00 | 69 | 1003.4 |
| 20260506132839 | 15 | 179 | 1.6 | 6.4 | 0.00 | 0.03 | 0.00 | 69 | 1003.4 |
| 20260506132620 | 15 | 179 | 3.2 | 9.7 | 0.00 | 0.03 | 0.00 | 69 | 1003.4 |
| 20260506132616 | 15 | 179 | 3.2 | 9.7 | 0.00 | 0.03 | 0.00 | 70 | 1003.3 |
| 20260506132612 | 15 | 179 | 3.2 | 9.7 | 0.00 | 0.03 | 0.00 | 69 | 1003.3 |
| 20260506132301 | 15 | 180 | 3.2 | 9.7 | 0.00 | 0.03 | 0.00 | 69 | 1003.3 |
| 20260506132201 | 15 | 180 | 3.2 | 9.7 | 0.00 | 0.03 | 0.00 | 68 | 1003.3 |
| 20260506132101 | 15 | 180 | 3.2 | 9.7 | 0.00 | 0.03 | 0.00 | 68 | 1003.3 |
| 20260506132001 | 15 | 179 | 3.2 | 9.7 | 0.00 | 0.03 | 0.00 | 68 | 1003.3 |
| 20260506131900 | 15 | 179 | 3.2 | 9.7 | 0.00 | 0.03 | 0.00 | 68 | 1003.3 |
| 20260506131801 | 15 | 179 | 3.2 | 9.7 | 0.00 | 0.03 | 0.00 | 68 | 1003.3 |
| 20260506131701 | 15 | 179 | 3.2 | 9.7 | 0.00 | 0.03 | 0.00 | 67 | 1003.3 |
| 20260506131601 | 15 | 186 | 3.2 | 8.0 | 0.00 | 0.03 | 0.00 | 67 | 1003.3 |
| 20260506131501 | 15 | 165 | 1.6 | 8.0 | 0.00 | 0.03 | 0.00 | 67 | 1003.3 |
| 20260506131401 | 15 | 165 | 1.6 | 8.0 | 0.00 | 0.03 | 0.00 | 67 | 1003.3 |
| 20260506131304 | 15 | 166 | 1.6 | 8.0 | 0.00 | 0.03 | 0.00 | 67 | 1003.2 |
| 20260506131200 | 15 | 166 | 1.6 | 8.0 | 0.00 | 0.03 | 0.00 | 67 | 1003.2 |
| 20260506131101 | 15 | 166 | 1.6 | 8.0 | 0.00 | 0.03 | 0.00 | 67 | 1003.1 |
| 20260506131001 | 15 | 150 | 1.6 | 8.0 | 0.00 | 0.03 | 0.00 | 66 | 1003.1 |
| 20260506130901 | 15 | 150 | 1.6 | 6.4 | 0.00 | 0.03 | 0.00 | 67 | 1003.0 |
| 20260506130804 | 15 | 121 | 1.6 | 6.4 | 0.00 | 0.03 | 0.00 | 66 | 1003.0 |
| 20260506130700 | 15 | 104 | 1.6 | 6.4 | 0.00 | 0.03 | 0.00 | 65 | 1002.8 |
| 20260506130621 | 16 | 103 | 1.6 | 6.4 | 0.00 | 0.03 | 0.00 | 65 | 1002.8 |
| 20260506130617 | 16 | 103 | 1.6 | 6.4 | 0.00 | 0.03 | 0.00 | 65 | 1002.7 |
| 20260506130613 | 16 | 103 | 1.6 | 6.4 | 0.00 | 0.03 | 0.00 | 66 | 1002.7 |
| 20260506130301 | 16 | 103 | 1.6 | 6.4 | 0.00 | 0.03 | 0.00 | 66 | 1002.7 |
| 20260506130201 | 16 | 100 | 1.6 | 6.4 | 0.00 | 0.03 | 0.00 | 67 | 1002.7 |
| 20260506130120 | 16 | 130 | 1.6 | 6.4 | 0.00 | 0.03 | 0.00 | 67 | 1002.7 |
| 20260506130116 | 16 | 132 | 1.6 | 6.4 | 0.00 | 0.03 | 0.00 | 66 | 1002.6 |
| 20260506130112 | 16 | 132 | 1.6 | 6.4 | 0.00 | 0.03 | 0.00 | 67 | 1002.6 |
| 20260506125801 | 16 | 75 | 1.6 | 6.4 | 0.00 | 0.03 | 0.00 | 66 | 1002.6 |
| 20260506125701 | 16 | 88 | 1.6 | 6.4 | 0.00 | 0.03 | 0.00 | 65 | 1002.6 |
| 20260506125601 | 16 | 98 | 1.6 | 6.4 | 0.00 | 0.03 | 0.00 | 65 | 1002.6 |
| 20260506125501 | 16 | 93 | 1.6 | 6.4 | 0.00 | 0.03 | 0.00 | 65 | 1002.7 |
| 20260506125401 | 16 | 93 | 1.6 | 6.4 | 0.00 | 0.03 | 0.00 | 64 | 1002.6 |
| 20260506125301 | 16 | 93 | 1.6 | 6.4 | 0.00 | 0.03 | 0.00 | 65 | 1002.6 |
| 20260506125201 | 16 | 93 | 1.6 | 6.4 | 0.00 | 0.03 | 0.00 | 64 | 1002.6 |
| 20260506125101 | 16 | 91 | 1.6 | 6.4 | 0.00 | 0.03 | 0.00 | 63 | 1002.6 |
| 20260506125000 | 16 | 91 | 1.6 | 6.4 | 0.00 | 0.03 | 0.00 | 62 | 1002.6 |
| 20260506124900 | 16 | 92 | 1.6 | 6.4 | 0.00 | 0.03 | 0.00 | 62 | 1002.6 |
| 20260506124853 | 16 | 109 | 1.6 | 4.8 | 0.00 | 0.03 | 0.00 | 61 | 1002.7 |
| 20260506124848 | 16 | 90 | 1.6 | 6.4 | 0.00 | 0.03 | 0.00 | 62 | 1002.6 |
| 20260506124839 | 16 | 94 | 1.6 | 6.4 | 0.00 | 0.03 | 0.00 | 60 | 1002.6 |
| 20260506124619 | 16 | 94 | 1.6 | 6.4 | 0.00 | 0.03 | 0.00 | 60 | 1002.6 |
| 20260506124615 | 16 | 106 | 1.6 | 4.8 | 0.00 | 0.03 | 0.00 | 60 | 1002.6 |
| 20260506124611 | 16 | 109 | 1.6 | 4.8 | 0.00 | 0.03 | 0.00 | 61 | 1002.7 |
| 20260506124300 | 16 | 109 | 0.0 | 4.8 | 0.00 | 0.03 | 0.00 | 62 | 1002.7 |
| 20260506124200 | 16 | 109 | 0.0 | 4.8 | 0.00 | 0.03 | 0.00 | 61 | 1002.7 |
| 20260506124122 | 16 | 119 | 0.0 | 3.2 | 0.00 | 0.03 | 0.00 | 60 | 1002.7 |
| 20260506124118 | 16 | 106 | 0.0 | 3.2 | 0.00 | 0.03 | 0.00 | 61 | 1002.8 |
| 20260506124114 | 16 | 107 | 0.0 | 3.2 | 0.00 | 0.03 | 0.00 | 62 | 1002.8 |
| 20260506123801 | 16 | 110 | 0.0 | 3.2 | 0.00 | 0.03 | 0.00 | 62 | 1002.8 |
| 20260506123700 | 16 | 111 | 0.0 | 3.2 | 0.00 | 0.03 | 0.00 | 62 | 1002.8 |
| 20260506123600 | 16 | 111 | 0.0 | 4.8 | 0.00 | 0.03 | 0.00 | 60 | 1002.8 |
| 20260506123500 | 16 | 111 | 1.6 | 4.8 | 0.00 | 0.03 | 0.00 | 60 | 1002.8 |
| 20260506123401 | 16 | 111 | 1.6 | 6.4 | 0.00 | 0.03 | 0.00 | 61 | 1002.8 |
| 20260506123301 | 16 | 111 | 1.6 | 6.4 | 0.00 | 0.03 | 0.00 | 61 | 1002.8 |
| 20260506123202 | 16 | 112 | 1.6 | 6.4 | 0.00 | 0.03 | 0.00 | 61 | 1003.0 |
| 20260506123101 | 17 | 111 | 1.6 | 6.4 | 0.00 | 0.03 | 0.00 | 61 | 1002.8 |
| 20260506123001 | 16 | 112 | 1.6 | 6.4 | 0.00 | 0.03 | 0.00 | 61 | 1002.8 |
| 20260506122901 | 17 | 112 | 1.6 | 6.4 | 0.00 | 0.03 | 0.00 | 60 | 1002.8 |
| 20260506122801 | 17 | 112 | 1.6 | 6.4 | 0.00 | 0.03 | 0.00 | 60 | 1002.8 |
| 20260506122701 | 17 | 112 | 1.6 | 6.4 | 0.00 | 0.03 | 0.00 | 60 | 1002.8 |
| 20260506122601 | 17 | 111 | 1.6 | 6.4 | 0.00 | 0.03 | 0.00 | 60 | 1002.8 |
| 20260506122501 | 17 | 88 | 1.6 | 6.4 | 0.00 | 0.03 | 0.00 | 59 | 1002.8 |
| 20260506122402 | 17 | 69 | 1.6 | 6.4 | 0.00 | 0.03 | 0.00 | 59 | 1003.0 |
| 20260506122301 | 17 | 68 | 1.6 | 6.4 | 0.00 | 0.03 | 0.00 | 58 | 1003.0 |
| 20260506122201 | 17 | 68 | 1.6 | 6.4 | 0.00 | 0.03 | 0.00 | 59 | 1003.0 |
| 20260506122101 | 17 | 68 | 1.6 | 6.4 | 0.00 | 0.03 | 0.00 | 59 | 1002.8 |
| 20260506122001 | 17 | 67 | 1.6 | 6.4 | 0.00 | 0.03 | 0.00 | 58 | 1003.0 |
| 20260506121901 | 17 | 65 | 1.6 | 6.4 | 0.00 | 0.03 | 0.00 | 58 | 1003.0 |
| 20260506121801 | 17 | 65 | 1.6 | 6.4 | 0.00 | 0.03 | 0.00 | 58 | 1003.0 |
| 20260506121700 | 17 | 65 | 1.6 | 6.4 | 0.00 | 0.03 | 0.00 | 58 | 1003.0 |
| 20260506121600 | 17 | 65 | 1.6 | 8.0 | 0.00 | 0.03 | 0.00 | 58 | 1003.1 |
| 20260506121500 | 17 | 88 | 1.6 | 9.7 | 0.00 | 0.03 | 0.00 | 58 | 1003.1 |
| 20260506121400 | 17 | 90 | 1.6 | 9.7 | 0.00 | 0.03 | 0.00 | 59 | 1003.1 |
| 20260506121301 | 17 | 90 | 1.6 | 9.7 | 0.00 | 0.03 | 0.00 | 59 | 1003.1 |
| 20260506121159 | 17 | 91 | 1.6 | 9.7 | 0.00 | 0.03 | 0.00 | 59 | 1003.1 |
| 20260506121059 | 17 | 91 | 1.6 | 9.7 | 0.00 | 0.03 | 0.00 | 58 | 1003.1 |
| 20260506121000 | 17 | 91 | 1.6 | 9.7 | 0.00 | 0.03 | 0.00 | 60 | 1003.1 |
| 20260506120902 | 17 | 91 | 1.6 | 9.7 | 0.00 | 0.03 | 0.00 | 59 | 1003.1 |
| 20260506120858 | 17 | 91 | 1.6 | 9.7 | 0.00 | 0.03 | 0.00 | 59 | 1003.1 |
| 20260506120756 | 17 | 64 | 1.6 | 9.7 | 0.00 | 0.03 | 0.00 | 58 | 1003.1 |
| 20260506120650 | 17 | 83 | 1.6 | 9.7 | 0.00 | 0.03 | 0.00 | 59 | 1003.1 |
| 20260506120550 | 17 | 80 | 1.6 | 9.7 | 0.00 | 0.03 | 0.00 | 60 | 1003.1 |
| 20260506120449 | 17 | 87 | 1.6 | 6.4 | 0.00 | 0.03 | 0.00 | 58 | 1003.0 |
| 20260506120402 | 17 | 87 | 1.6 | 6.4 | 0.00 | 0.03 | 0.00 | 58 | 1003.0 |
| 20260506120349 | 17 | 87 | 1.6 | 6.4 | 0.00 | 0.03 | 0.00 | 58 | 1003.0 |
| 20260506120249 | 17 | 87 | 1.6 | 6.4 | 0.00 | 0.03 | 0.00 | 58 | 1003.0 |
| 20260506120144 | 17 | 87 | 1.6 | 6.4 | 0.00 | 0.03 | 0.00 | 58 | 1002.8 |
| 20260506120044 | 17 | 87 | 3.2 | 8.0 | 0.00 | 0.03 | 0.00 | 59 | 1002.8 |
| 20260506115944 | 17 | 86 | 3.2 | 8.0 | 0.00 | 0.03 | 0.00 | 58 | 1002.8 |
| 20260506115903 | 17 | 86 | 3.2 | 8.0 | 0.00 | 0.03 | 0.00 | 57 | 1002.8 |
| 20260506115844 | 17 | 86 | 3.2 | 8.0 | 0.00 | 0.03 | 0.00 | 57 | 1003.0 |
| 20260506115744 | 17 | 86 | 3.2 | 8.0 | 0.00 | 0.03 | 0.00 | 58 | 1003.0 |
| 20260506115641 | 17 | 84 | 3.2 | 8.0 | 0.00 | 0.03 | 0.00 | 58 | 1003.1 |
| 20260506115625 | 17 | 88 | 3.2 | 8.0 | 0.00 | 0.03 | 0.00 | 57 | 1003.1 |
| 20260506115617 | 17 | 53 | 3.2 | 8.0 | 0.00 | 0.03 | 0.00 | 57 | 1003.1 |
| 20260506115613 | 17 | 28 | 3.2 | 8.0 | 0.00 | 0.03 | 0.00 | 57 | 1003.1 |
| 20260506115340 | 17 | 88 | 3.2 | 8.0 | 0.00 | 0.03 | 0.00 | 57 | 1003.1 |
| 20260506115240 | 17 | 89 | 3.2 | 8.0 | 0.00 | 0.03 | 0.00 | 57 | 1003.1 |
| 20260506115140 | 17 | 44 | 3.2 | 8.0 | 0.00 | 0.03 | 0.00 | 58 | 1003.1 |
| 20260506115040 | 17 | 115 | 3.2 | 8.0 | 0.00 | 0.03 | 0.00 | 58 | 1003.0 |
| 20260506114937 | 17 | 114 | 3.2 | 8.0 | 0.00 | 0.03 | 0.00 | 58 | 1003.0 |
| 20260506114903 | 17 | 93 | 3.2 | 9.7 | 0.00 | 0.03 | 0.00 | 58 | 1003.0 |
| 20260506114838 | 17 | 69 | 3.2 | 9.7 | 0.00 | 0.03 | 0.00 | 58 | 1003.0 |
| 20260506114738 | 17 | 85 | 3.2 | 9.7 | 0.00 | 0.03 | 0.00 | 57 | 1002.8 |
| 20260506114638 | 17 | 75 | 3.2 | 9.7 | 0.00 | 0.03 | 0.00 | 59 | 1003.0 |
| 20260506114538 | 17 | 22 | 3.2 | 9.7 | 0.00 | 0.03 | 0.00 | 58 | 1003.0 |
| 20260506114435 | 17 | 62 | 3.2 | 9.7 | 0.00 | 0.03 | 0.00 | 59 | 1003.0 |
| 20260506114401 | 17 | 34 | 3.2 | 9.7 | 0.00 | 0.03 | 0.00 | 57 | 1003.0 |
| 20260506114335 | 17 | 28 | 3.2 | 9.7 | 0.00 | 0.03 | 0.00 | 57 | 1003.0 |
| 20260506114236 | 17 | 28 | 3.2 | 9.7 | 0.00 | 0.03 | 0.00 | 57 | 1003.1 |
| 20260506114136 | 17 | 80 | 3.2 | 9.7 | 0.00 | 0.03 | 0.00 | 57 | 1003.1 |
| 20260506114036 | 17 | 80 | 3.2 | 9.7 | 0.00 | 0.03 | 0.00 | 57 | 1003.1 |
| 20260506113936 | 17 | 80 | 3.2 | 9.7 | 0.00 | 0.03 | 0.00 | 57 | 1003.1 |
| 20260506113901 | 17 | 9 | 3.2 | 9.7 | 0.00 | 0.03 | 0.00 | 57 | 1003.2 |
| 20260506113833 | 17 | 27 | 3.2 | 9.7 | 0.00 | 0.03 | 0.00 | 57 | 1003.2 |
| 20260506113733 | 17 | 98 | 3.2 | 9.7 | 0.00 | 0.03 | 0.00 | 57 | 1003.2 |
| 20260506113631 | 17 | 98 | 3.2 | 9.7 | 0.00 | 0.03 | 0.00 | 59 | 1003.2 |
| 20260506113529 | 17 | 97 | 3.2 | 9.7 | 0.00 | 0.03 | 0.00 | 57 | 1003.2 |
| 20260506113429 | 17 | 96 | 3.2 | 9.7 | 0.00 | 0.03 | 0.00 | 57 | 1003.2 |
| 20260506113329 | 17 | 26 | 3.2 | 9.7 | 0.00 | 0.03 | 0.00 | 57 | 1003.2 |
| 20260506113229 | 17 | 26 | 3.2 | 9.7 | 0.00 | 0.03 | 0.00 | 58 | 1003.2 |
| 20260506113129 | 17 | 39 | 3.2 | 9.7 | 0.00 | 0.03 | 0.00 | 58 | 1003.2 |
| 20260506113029 | 17 | 87 | 3.2 | 9.7 | 0.00 | 0.03 | 0.00 | 58 | 1003.2 |
| 20260506112929 | 17 | 59 | 1.6 | 9.7 | 0.00 | 0.03 | 0.00 | 59 | 1003.2 |
| 20260506112850 | 17 | 42 | 1.6 | 8.0 | 0.00 | 0.03 | 0.00 | 59 | 1003.2 |
| 20260506112829 | 17 | 73 | 1.6 | 4.8 | 0.00 | 0.03 | 0.00 | 59 | 1003.2 |
| 20260506112729 | 17 | 53 | 1.6 | 4.8 | 0.00 | 0.03 | 0.00 | 59 | 1003.2 |
| 20260506112629 | 17 | 28 | 1.6 | 4.8 | 0.00 | 0.03 | 0.00 | 59 | 1003.2 |
| 20260506112528 | 17 | 122 | 1.6 | 4.8 | 0.00 | 0.03 | 0.00 | 60 | 1003.2 |
| 20260506112429 | 17 | 122 | 1.6 | 4.8 | 0.00 | 0.03 | 0.00 | 58 | 1003.3 |
| 20260506112329 | 17 | 126 | 1.6 | 6.4 | 0.00 | 0.03 | 0.00 | 58 | 1003.3 |
| 20260506112229 | 17 | 123 | 1.6 | 6.4 | 0.00 | 0.03 | 0.00 | 57 | 1003.3 |
| 20260506112129 | 17 | 126 | 1.6 | 6.4 | 0.00 | 0.03 | 0.00 | 58 | 1003.3 |
| 20260506112029 | 17 | 126 | 1.6 | 6.4 | 0.00 | 0.03 | 0.00 | 58 | 1003.3 |
| 20260506111929 | 17 | 73 | 1.6 | 6.4 | 0.00 | 0.03 | 0.00 | 58 | 1003.3 |
| 20260506111840 | 17 | 74 | 3.2 | 9.7 | 0.00 | 0.03 | 0.00 | 58 | 1003.3 |
| 20260506111829 | 17 | 73 | 3.2 | 9.7 | 0.00 | 0.03 | 0.00 | 58 | 1003.3 |
| 20260506111729 | 17 | 74 | 3.2 | 9.7 | 0.00 | 0.03 | 0.00 | 59 | 1003.3 |
| 20260506111629 | 17 | 88 | 3.2 | 9.7 | 0.00 | 0.03 | 0.00 | 58 | 1003.3 |
| 20260506111604 | 17 | 78 | 3.2 | 16.1 | 0.00 | 0.03 | 0.00 | 57 | 1003.2 |
| 20260506111554 | 17 | 94 | 3.2 | 9.7 | 0.00 | 0.03 | 0.00 | 55 | 1003.2 |
| 20260506111551 | 17 | 94 | 3.2 | 16.1 | 0.00 | 0.03 | 0.00 | 57 | 1003.2 |
| 20260506111329 | 17 | 78 | 3.2 | 16.1 | 0.00 | 0.03 | 0.00 | 57 | 1003.2 |
| 20260506111227 | 17 | 338 | 3.2 | 16.1 | 0.00 | 0.03 | 0.00 | 56 | 1003.2 |
| 20260506111128 | 17 | 113 | 4.8 | 16.1 | 0.00 | 0.03 | 0.00 | 57 | 1003.2 |
| 20260506111027 | 17 | 92 | 4.8 | 17.7 | 0.00 | 0.03 | 0.00 | 58 | 1003.2 |
| 20260506110927 | 17 | 97 | 4.8 | 17.7 | 0.00 | 0.03 | 0.00 | 57 | 1003.2 |
| 20260506110839 | 17 | 86 | 4.8 | 17.7 | 0.00 | 0.03 | 0.00 | 57 | 1003.2 |
| 20260506110825 | 17 | 103 | 4.8 | 17.7 | 0.00 | 0.03 | 0.00 | 57 | 1003.2 |
| 20260506110724 | 17 | 103 | 4.8 | 17.7 | 0.00 | 0.03 | 0.00 | 59 | 1003.2 |
| 20260506110624 | 17 | 95 | 4.8 | 17.7 | 0.00 | 0.03 | 0.00 | 57 | 1003.2 |
| 20260506110524 | 17 | 105 | 4.8 | 17.7 | 0.00 | 0.03 | 0.00 | 58 | 1003.2 |
| 20260506110422 | 17 | 97 | 4.8 | 17.7 | 0.00 | 0.03 | 0.00 | 60 | 1003.2 |
| 20260506110340 | 17 | 77 | 4.8 | 17.7 | 0.00 | 0.03 | 0.00 | 60 | 1003.2 |
| 20260506110321 | 17 | 103 | 4.8 | 17.7 | 0.00 | 0.03 | 0.00 | 60 | 1003.2 |
| 20260506110221 | 17 | 71 | 4.8 | 17.7 | 0.00 | 0.03 | 0.00 | 60 | 1003.1 |
| 20260506110122 | 17 | 51 | 4.8 | 17.7 | 0.00 | 0.03 | 0.00 | 60 | 1003.1 |
| 20260506110022 | 17 | 127 | 3.2 | 12.9 | 0.00 | 0.03 | 0.00 | 58 | 1003.2 |
| 20260506105920 | 17 | 100 | 4.8 | 12.9 | 0.00 | 0.03 | 0.00 | 58 | 1003.2 |
| 20260506105840 | 17 | 107 | 4.8 | 12.9 | 0.00 | 0.03 | 0.00 | 60 | 1003.2 |
| 20260506105819 | 17 | 146 | 4.8 | 12.9 | 0.00 | 0.03 | 0.00 | 59 | 1003.2 |
| 20260506105717 | 17 | 99 | 4.8 | 9.7 | 0.00 | 0.03 | 0.00 | 59 | 1003.2 |
| 20260506105617 | 17 | 108 | 4.8 | 9.7 | 0.00 | 0.03 | 0.00 | 59 | 1003.2 |
| 20260506105516 | 17 | 37 | 4.8 | 9.7 | 0.00 | 0.03 | 0.00 | 58 | 1003.2 |
| 20260506105416 | 17 | 96 | 4.8 | 11.3 | 0.00 | 0.03 | 0.00 | 57 | 1003.2 |
| 20260506105340 | 17 | 63 | 4.8 | 11.3 | 0.00 | 0.03 | 0.00 | 59 | 1003.2 |
| 20260506105316 | 17 | 74 | 4.8 | 16.1 | 0.00 | 0.03 | 0.00 | 58 | 1003.2 |
| 20260506105216 | 17 | 71 | 6.4 | 16.1 | 0.00 | 0.03 | 0.00 | 59 | 1003.2 |
| 20260506105115 | 17 | 82 | 4.8 | 16.1 | 0.00 | 0.03 | 0.00 | 60 | 1003.2 |
| 20260506105102 | 17 | 0 | 4.8 | 16.1 | 0.00 | 0.03 | 0.00 | 60 | 1003.3 |
| 20260506105055 | 17 | 63 | 6.4 | 16.1 | 0.00 | 0.03 | 0.00 | 61 | 1003.3 |
| 20260506105051 | 17 | 51 | 6.4 | 16.1 | 0.00 | 0.03 | 0.00 | 62 | 1003.3 |
| 20260506104812 | 17 | 337 | 4.8 | 16.1 | 0.00 | 0.03 | 0.00 | 60 | 1003.3 |
| 20260506104711 | 17 | 15 | 6.4 | 16.1 | 0.00 | 0.03 | 0.00 | 59 | 1003.3 |
| 20260506104609 | 17 | 69 | 6.4 | 16.1 | 0.00 | 0.03 | 0.00 | 59 | 1003.3 |
| 20260506104509 | 17 | 44 | 4.8 | 16.1 | 0.00 | 0.03 | 0.00 | 61 | 1003.3 |
| 20260506104410 | 17 | 35 | 4.8 | 16.1 | 0.00 | 0.03 | 0.00 | 61 | 1003.3 |
| 20260506104339 | 17 | 54 | 4.8 | 16.1 | 0.00 | 0.03 | 0.00 | 62 | 1003.3 |
| 20260506104310 | 17 | 28 | 4.8 | 16.1 | 0.00 | 0.03 | 0.00 | 62 | 1003.3 |
| 20260506104209 | 17 | 24 | 4.8 | 16.1 | 0.00 | 0.03 | 0.00 | 62 | 1003.3 |
| 20260506104109 | 17 | 329 | 4.8 | 9.7 | 0.00 | 0.03 | 0.00 | 61 | 1003.4 |
| 20260506104003 | 17 | 355 | 4.8 | 9.7 | 0.00 | 0.03 | 0.00 | 63 | 1003.4 |
| 20260506103903 | 16 | 79 | 4.8 | 9.7 | 0.00 | 0.03 | 0.00 | 62 | 1003.4 |
| 20260506103840 | 16 | 80 | 4.8 | 9.7 | 0.00 | 0.03 | 0.00 | 60 | 1003.4 |
| 20260506103802 | 16 | 62 | 4.8 | 9.7 | 0.00 | 0.03 | 0.00 | 60 | 1003.4 |
| 20260506103702 | 16 | 19 | 3.2 | 9.7 | 0.00 | 0.03 | 0.00 | 63 | 1003.5 |
| 20260506103601 | 16 | 312 | 3.2 | 9.7 | 0.00 | 0.03 | 0.00 | 63 | 1003.6 |
| 20260506103501 | 16 | 312 | 3.2 | 9.7 | 0.00 | 0.03 | 0.00 | 63 | 1003.6 |
| 20260506103401 | 16 | 313 | 3.2 | 9.7 | 0.00 | 0.03 | 0.00 | 64 | 1003.6 |
| 20260506103338 | 16 | 313 | 3.2 | 9.7 | 0.00 | 0.03 | 0.00 | 66 | 1003.7 |
| 20260506103301 | 16 | 319 | 3.2 | 8.0 | 0.00 | 0.03 | 0.00 | 66 | 1003.7 |
| 20260506103201 | 16 | 336 | 3.2 | 8.0 | 0.00 | 0.03 | 0.00 | 64 | 1003.7 |
| 20260506103101 | 16 | 53 | 1.6 | 8.0 | 0.00 | 0.03 | 0.00 | 64 | 1003.7 |
| 20260506103001 | 16 | 186 | 1.6 | 6.4 | 0.00 | 0.03 | 0.00 | 65 | 1003.8 |
| 20260506102901 | 16 | 186 | 3.2 | 6.4 | 0.00 | 0.03 | 0.00 | 64 | 1003.8 |
| 20260506102835 | 16 | 186 | 3.2 | 6.4 | 0.00 | 0.03 | 0.00 | 64 | 1003.9 |
| 20260506102802 | 16 | 186 | 3.2 | 6.4 | 0.00 | 0.03 | 0.00 | 65 | 1003.9 |
| 20260506102701 | 16 | 113 | 3.2 | 6.4 | 0.00 | 0.03 | 0.00 | 63 | 1003.8 |
| 20260506102601 | 16 | 113 | 3.2 | 6.4 | 0.00 | 0.03 | 0.00 | 64 | 1003.8 |
| 20260506102501 | 16 | 113 | 3.2 | 9.7 | 0.00 | 0.03 | 0.00 | 64 | 1003.8 |
| 20260506102401 | 16 | 113 | 3.2 | 9.7 | 0.00 | 0.03 | 0.00 | 65 | 1003.8 |
| 20260506102336 | 16 | 112 | 3.2 | 9.7 | 0.00 | 0.03 | 0.00 | 65 | 1003.9 |
| 20260506102301 | 16 | 112 | 3.2 | 9.7 | 0.00 | 0.03 | 0.00 | 64 | 1003.9 |
| 20260506102201 | 16 | 103 | 3.2 | 9.7 | 0.00 | 0.03 | 0.00 | 66 | 1003.9 |
| 20260506102101 | 16 | 101 | 3.2 | 9.7 | 0.00 | 0.03 | 0.00 | 64 | 1003.9 |
| 20260506102001 | 16 | 98 | 3.2 | 9.7 | 0.00 | 0.03 | 0.00 | 63 | 1003.9 |
| 20260506101859 | 16 | 205 | 3.2 | 9.7 | 0.00 | 0.03 | 0.00 | 65 | 1003.9 |
| 20260506101836 | 16 | 157 | 3.2 | 9.7 | 0.00 | 0.03 | 0.00 | 65 | 1003.9 |
| 20260506101757 | 16 | 112 | 3.2 | 9.7 | 0.00 | 0.03 | 0.00 | 63 | 1003.9 |
| 20260506101658 | 16 | 111 | 3.2 | 9.7 | 0.00 | 0.03 | 0.00 | 63 | 1003.9 |
| 20260506101557 | 16 | 111 | 3.2 | 9.7 | 0.00 | 0.03 | 0.00 | 63 | 1003.9 |
| 20260506101456 | 16 | 92 | 3.2 | 11.3 | 0.00 | 0.03 | 0.00 | 62 | 1003.9 |
| 20260506101356 | 16 | 93 | 3.2 | 11.3 | 0.00 | 0.03 | 0.00 | 63 | 1003.9 |
| 20260506101335 | 16 | 86 | 3.2 | 11.3 | 0.00 | 0.03 | 0.00 | 63 | 1003.9 |
| 20260506101256 | 16 | 119 | 3.2 | 11.3 | 0.00 | 0.03 | 0.00 | 64 | 1003.9 |
| 20260506101156 | 16 | 88 | 3.2 | 11.3 | 0.00 | 0.03 | 0.00 | 63 | 1004.0 |
| 20260506101106 | 16 | 71 | 1.6 | 11.3 | 0.00 | 0.03 | 0.00 | 65 | 1004.0 |
| 20260506101056 | 16 | 96 | 3.2 | 11.3 | 0.00 | 0.03 | 0.00 | 63 | 1004.0 |
| 20260506101051 | 16 | 115 | 3.2 | 11.3 | 0.00 | 0.03 | 0.00 | 63 | 1004.0 |
| 20260506101047 | 16 | 71 | 1.6 | 11.3 | 0.00 | 0.03 | 0.00 | 64 | 1004.0 |
| 20260506100753 | 16 | 98 | 3.2 | 11.3 | 0.00 | 0.03 | 0.00 | 64 | 1004.0 |
| 20260506100653 | 16 | 85 | 3.2 | 11.3 | 0.00 | 0.03 | 0.00 | 66 | 1004.0 |
| 20260506100553 | 16 | 96 | 1.6 | 11.3 | 0.00 | 0.03 | 0.00 | 67 | 1004.0 |
| 20260506100451 | 16 | 196 | 1.6 | 8.0 | 0.00 | 0.03 | 0.00 | 67 | 1004.0 |
| 20260506100352 | 16 | 196 | 1.6 | 8.0 | 0.00 | 0.03 | 0.00 | 67 | 1004.0 |
| 20260506100336 | 16 | 197 | 1.6 | 8.0 | 0.00 | 0.03 | 0.00 | 66 | 1004.0 |
| 20260506100252 | 16 | 197 | 1.6 | 8.0 | 0.00 | 0.03 | 0.00 | 66 | 1004.1 |
| 20260506100152 | 16 | 197 | 1.6 | 8.0 | 0.00 | 0.03 | 0.00 | 67 | 1004.1 |
| 20260506100052 | 16 | 196 | 1.6 | 8.0 | 0.00 | 0.03 | 0.00 | 67 | 1004.1 |
| 20260506095950 | 16 | 189 | 1.6 | 8.0 | 0.00 | 0.03 | 0.00 | 67 | 1004.1 |
| 20260506095850 | 15 | 189 | 1.6 | 8.0 | 0.00 | 0.03 | 0.00 | 66 | 1004.1 |
| 20260506095831 | 15 | 189 | 1.6 | 8.0 | 0.00 | 0.03 | 0.00 | 68 | 1004.1 |
| 20260506095747 | 15 | 188 | 1.6 | 8.0 | 0.00 | 0.03 | 0.00 | 68 | 1004.0 |
| 20260506095645 | 15 | 130 | 1.6 | 4.8 | 0.00 | 0.03 | 0.00 | 68 | 1004.1 |
| 20260506095545 | 15 | 129 | 1.6 | 4.8 | 0.00 | 0.03 | 0.00 | 67 | 1004.1 |
| 20260506095445 | 15 | 129 | 1.6 | 4.8 | 0.00 | 0.03 | 0.00 | 68 | 1004.1 |
| 20260506095345 | 15 | 129 | 1.6 | 4.8 | 0.00 | 0.03 | 0.00 | 66 | 1004.1 |
| 20260506095332 | 15 | 127 | 1.6 | 6.4 | 0.00 | 0.03 | 0.00 | 66 | 1004.1 |
| 20260506095246 | 15 | 127 | 1.6 | 6.4 | 0.00 | 0.03 | 0.00 | 67 | 1004.0 |
| 20260506095146 | 15 | 126 | 1.6 | 6.4 | 0.00 | 0.03 | 0.00 | 66 | 1004.0 |
| 20260506095051 | 15 | 127 | 1.6 | 6.4 | 0.00 | 0.03 | 0.00 | 66 | 1004.0 |
| 20260506095047 | 15 | 136 | 1.6 | 6.4 | 0.00 | 0.03 | 0.00 | 66 | 1004.0 |
| 20260506095043 | 15 | 136 | 1.6 | 6.4 | 0.00 | 0.03 | 0.00 | 66 | 1003.9 |
| 20260506094744 | 15 | 135 | 1.6 | 6.4 | 0.00 | 0.03 | 0.00 | 65 | 1003.9 |
| 20260506094644 | 15 | 135 | 1.6 | 6.4 | 0.00 | 0.03 | 0.00 | 66 | 1003.9 |
| 20260506094543 | 15 | 135 | 1.6 | 11.3 | 0.00 | 0.03 | 0.00 | 66 | 1003.9 |
| 20260506094444 | 15 | 135 | 1.6 | 11.3 | 0.00 | 0.03 | 0.00 | 64 | 1003.9 |
| 20260506094331 | 15 | 136 | 1.6 | 11.3 | 0.00 | 0.03 | 0.00 | 65 | 1003.9 |
| 20260506094244 | 15 | 136 | 3.2 | 11.3 | 0.00 | 0.03 | 0.00 | 65 | 1003.9 |
| 20260506094144 | 15 | 136 | 3.2 | 11.3 | 0.00 | 0.03 | 0.00 | 65 | 1004.0 |
| 20260506094055 | 15 | 151 | 3.2 | 11.3 | 0.00 | 0.03 | 0.00 | 64 | 1004.0 |
| 20260506094051 | 15 | 136 | 3.2 | 11.3 | 0.00 | 0.03 | 0.00 | 64 | 1003.9 |
| 20260506094047 | 15 | 135 | 3.2 | 11.3 | 0.00 | 0.03 | 0.00 | 65 | 1003.9 |
| 20260506094042 | 15 | 150 | 3.2 | 11.3 | 0.00 | 0.03 | 0.00 | 64 | 1004.0 |
| 20260506093823 | 15 | 100 | 3.2 | 9.7 | 0.00 | 0.03 | 0.00 | 63 | 1004.0 |
| 20260506093819 | 15 | 106 | 3.2 | 11.3 | 0.00 | 0.03 | 0.00 | 64 | 1004.0 |
| 20260506093815 | 15 | 98 | 3.2 | 11.3 | 0.00 | 0.03 | 0.00 | 64 | 1004.0 |
| 20260506093550 | 15 | 95 | 3.2 | 9.7 | 0.00 | 0.03 | 0.00 | 63 | 1003.9 |
| 20260506093545 | 15 | 95 | 3.2 | 9.7 | 0.00 | 0.03 | 0.00 | 63 | 1003.9 |
| 20260506093541 | 15 | 100 | 3.2 | 9.7 | 0.00 | 0.03 | 0.00 | 63 | 1004.0 |
| 20260506093239 | 15 | 98 | 3.2 | 6.4 | 0.00 | 0.03 | 0.00 | 64 | 1004.0 |
| 20260506093140 | 15 | 96 | 1.6 | 6.4 | 0.00 | 0.03 | 0.00 | 63 | 1003.9 |
| 20260506093040 | 15 | 88 | 1.6 | 6.4 | 0.00 | 0.03 | 0.00 | 63 | 1004.0 |
| 20260506092940 | 15 | 88 | 1.6 | 6.4 | 0.00 | 0.03 | 0.00 | 64 | 1003.9 |
| 20260506092831 | 15 | 93 | 1.6 | 6.4 | 0.00 | 0.03 | 0.00 | 67 | 1004.0 |
| 20260506092740 | 15 | 97 | 1.6 | 6.4 | 0.00 | 0.03 | 0.00 | 67 | 1004.0 |
| 20260506092639 | 15 | 124 | 1.6 | 6.4 | 0.00 | 0.03 | 0.00 | 65 | 1004.0 |
| 20260506092554 | 15 | 105 | 1.6 | 6.4 | 0.00 | 0.03 | 0.00 | 64 | 1004.1 |
| 20260506092550 | 15 | 110 | 1.6 | 4.8 | 0.00 | 0.03 | 0.00 | 65 | 1004.0 |
| 20260506092545 | 15 | 111 | 1.6 | 6.4 | 0.00 | 0.03 | 0.00 | 65 | 1004.0 |
| 20260506092541 | 15 | 105 | 1.6 | 6.4 | 0.00 | 0.03 | 0.00 | 66 | 1004.1 |
| 20260506092239 | 15 | 96 | 0.0 | 6.4 | 0.00 | 0.03 | 0.00 | 66 | 1004.0 |
| 20260506092139 | 15 | 91 | 0.0 | 6.4 | 0.00 | 0.03 | 0.00 | 66 | 1004.1 |
| 20260506092039 | 15 | 91 | 0.0 | 6.4 | 0.00 | 0.03 | 0.00 | 65 | 1004.1 |
| 20260506091940 | 15 | 91 | 0.0 | 6.4 | 0.00 | 0.03 | 0.00 | 66 | 1004.1 |
| 20260506091832 | 15 | 92 | 0.0 | 6.4 | 0.00 | 0.03 | 0.00 | 67 | 1004.1 |
| 20260506091736 | 15 | 91 | 1.6 | 6.4 | 0.00 | 0.03 | 0.00 | 67 | 1004.1 |
| 20260506091636 | 15 | 90 | 1.6 | 6.4 | 0.00 | 0.03 | 0.00 | 66 | 1004.1 |
| 20260506091535 | 15 | 89 | 1.6 | 6.4 | 0.00 | 0.03 | 0.00 | 69 | 1004.1 |
| 20260506091435 | 15 | 275 | 1.6 | 4.8 | 0.00 | 0.03 | 0.00 | 69 | 1004.1 |
| 20260506091331 | 15 | 275 | 1.6 | 4.8 | 0.00 | 0.03 | 0.00 | 70 | 1004.1 |
| 20260506091235 | 15 | 275 | 1.6 | 6.4 | 0.00 | 0.03 | 0.00 | 69 | 1004.1 |
| 20260506091135 | 15 | 275 | 1.6 | 6.4 | 0.00 | 0.03 | 0.00 | 68 | 1004.2 |
| 20260506091036 | 15 | 275 | 1.6 | 6.4 | 0.00 | 0.03 | 0.00 | 68 | 1004.2 |
| 20260506090936 | 15 | 275 | 1.6 | 6.4 | 0.00 | 0.03 | 0.00 | 69 | 1004.2 |
| 20260506090831 | 15 | 275 | 1.6 | 6.4 | 0.00 | 0.03 | 0.00 | 69 | 1004.2 |
| 20260506090736 | 15 | 275 | 3.2 | 6.4 | 0.00 | 0.03 | 0.00 | 70 | 1004.2 |
| 20260506090635 | 15 | 275 | 3.2 | 6.4 | 0.00 | 0.03 | 0.00 | 69 | 1004.2 |
| 20260506090535 | 15 | 275 | 1.6 | 6.4 | 0.00 | 0.03 | 0.00 | 69 | 1004.2 |
| 20260506090436 | 15 | 297 | 1.6 | 6.4 | 0.00 | 0.03 | 0.00 | 69 | 1004.1 |
| 20260506090332 | 15 | 297 | 1.6 | 6.4 | 0.00 | 0.03 | 0.00 | 70 | 1004.1 |
| 20260506090236 | 15 | 302 | 1.6 | 4.8 | 0.00 | 0.03 | 0.00 | 70 | 1004.1 |
| 20260506090135 | 15 | 302 | 1.6 | 4.8 | 0.00 | 0.03 | 0.00 | 70 | 1004.1 |
| 20260506090036 | 15 | 304 | 3.2 | 4.8 | 0.00 | 0.03 | 0.00 | 69 | 1004.1 |
| 20260506085936 | 15 | 305 | 3.2 | 4.8 | 0.00 | 0.03 | 0.00 | 69 | 1004.1 |
| 20260506085832 | 15 | 305 | 3.2 | 4.8 | 0.00 | 0.03 | 0.00 | 69 | 1004.0 |
| 20260506085731 | 15 | 304 | 1.6 | 4.8 | 0.00 | 0.03 | 0.00 | 69 | 1004.0 |
| 20260506085631 | 15 | 303 | 1.6 | 4.8 | 0.00 | 0.03 | 0.00 | 69 | 1004.0 |
| 20260506085532 | 14 | 303 | 1.6 | 4.8 | 0.00 | 0.03 | 0.00 | 69 | 1004.0 |
| 20260506085432 | 14 | 302 | 1.6 | 4.8 | 0.00 | 0.03 | 0.00 | 69 | 1004.1 |
| 20260506085332 | 14 | 302 | 1.6 | 4.8 | 0.00 | 0.03 | 0.00 | 69 | 1004.1 |
| 20260506085232 | 14 | 302 | 1.6 | 4.8 | 0.00 | 0.03 | 0.00 | 69 | 1004.1 |
| 20260506085132 | 14 | 302 | 1.6 | 4.8 | 0.00 | 0.03 | 0.00 | 69 | 1004.1 |
| 20260506085031 | 14 | 303 | 1.6 | 3.2 | 0.00 | 0.03 | 0.00 | 69 | 1004.1 |
| 20260506084932 | 14 | 71 | 1.6 | 4.8 | 0.00 | 0.03 | 0.00 | 68 | 1004.2 |
| 20260506084832 | 14 | 73 | 1.6 | 4.8 | 0.00 | 0.03 | 0.00 | 69 | 1004.2 |
| 20260506084732 | 14 | 71 | 1.6 | 4.8 | 0.00 | 0.03 | 0.00 | 69 | 1004.1 |
| 20260506084632 | 14 | 71 | 1.6 | 4.8 | 0.00 | 0.03 | 0.00 | 69 | 1004.2 |
| 20260506084532 | 14 | 71 | 1.6 | 4.8 | 0.00 | 0.03 | 0.00 | 70 | 1004.2 |
| 20260506084431 | 14 | 71 | 1.6 | 6.4 | 0.00 | 0.03 | 0.00 | 71 | 1004.2 |
| 20260506084331 | 14 | 71 | 1.6 | 6.4 | 0.00 | 0.03 | 0.00 | 70 | 1004.1 |
| 20260506084232 | 14 | 71 | 1.6 | 6.4 | 0.00 | 0.03 | 0.00 | 70 | 1004.1 |
| 20260506084131 | 14 | 71 | 1.6 | 6.4 | 0.00 | 0.03 | 0.00 | 70 | 1004.1 |
| 20260506084048 | 14 | 71 | 1.6 | 6.4 | 0.00 | 0.03 | 0.00 | 70 | 1004.1 |
| 20260506084044 | 14 | 71 | 1.6 | 6.4 | 0.00 | 0.03 | 0.00 | 70 | 1004.1 |
| 20260506084040 | 14 | 71 | 1.6 | 6.4 | 0.00 | 0.03 | 0.00 | 71 | 1004.1 |
| 20260506083729 | 14 | 71 | 1.6 | 6.4 | 0.00 | 0.03 | 0.00 | 70 | 1004.2 |
| 20260506083629 | 14 | 71 | 1.6 | 6.4 | 0.00 | 0.03 | 0.00 | 70 | 1004.2 |
| 20260506083529 | 14 | 71 | 1.6 | 6.4 | 0.00 | 0.03 | 0.00 | 72 | 1004.2 |
| 20260506083429 | 14 | 74 | 1.6 | 6.4 | 0.00 | 0.03 | 0.00 | 72 | 1004.2 |
| 20260506083329 | 14 | 346 | 1.6 | 6.4 | 0.00 | 0.03 | 0.00 | 71 | 1004.3 |
| 20260506083229 | 14 | 315 | 1.6 | 4.8 | 0.00 | 0.03 | 0.00 | 72 | 1004.3 |
| 20260506083129 | 14 | 315 | 0.0 | 3.2 | 0.00 | 0.03 | 0.00 | 72 | 1004.3 |
| 20260506083029 | 14 | 315 | 1.6 | 3.2 | 0.00 | 0.03 | 0.00 | 73 | 1004.3 |
| 20260506082929 | 14 | 315 | 1.6 | 4.8 | 0.00 | 0.03 | 0.00 | 72 | 1004.3 |
| 20260506082829 | 14 | 315 | 1.6 | 4.8 | 0.00 | 0.03 | 0.00 | 71 | 1004.3 |
| 20260506082729 | 14 | 315 | 1.6 | 4.8 | 0.00 | 0.03 | 0.00 | 70 | 1004.3 |
| 20260506082629 | 14 | 315 | 1.6 | 4.8 | 0.00 | 0.03 | 0.00 | 70 | 1004.3 |
| 20260506082529 | 14 | 315 | 1.6 | 4.8 | 0.00 | 0.03 | 0.00 | 70 | 1004.2 |
| 20260506082429 | 14 | 315 | 1.6 | 4.8 | 0.00 | 0.03 | 0.00 | 70 | 1004.3 |
| 20260506082328 | 14 | 315 | 1.6 | 4.8 | 0.00 | 0.03 | 0.00 | 70 | 1004.3 |
| 20260506082228 | 14 | 315 | 1.6 | 4.8 | 0.00 | 0.03 | 0.00 | 71 | 1004.3 |
| 20260506082129 | 14 | 315 | 3.2 | 4.8 | 0.00 | 0.03 | 0.00 | 72 | 1004.2 |
| 20260506082029 | 14 | 315 | 3.2 | 4.8 | 0.00 | 0.03 | 0.00 | 72 | 1004.3 |
| 20260506081929 | 13 | 315 | 1.6 | 4.8 | 0.00 | 0.03 | 0.00 | 73 | 1004.3 |
| 20260506081829 | 13 | 315 | 1.6 | 4.8 | 0.00 | 0.03 | 0.00 | 73 | 1004.2 |
| 20260506081729 | 13 | 315 | 1.6 | 4.8 | 0.00 | 0.03 | 0.00 | 74 | 1004.3 |
| 20260506081629 | 13 | 325 | 1.6 | 4.8 | 0.00 | 0.03 | 0.00 | 74 | 1004.2 |
| 20260506081551 | 13 | 325 | 1.6 | 4.8 | 0.00 | 0.03 | 0.00 | 74 | 1004.2 |
| 20260506081543 | 13 | 325 | 1.6 | 4.8 | 0.00 | 0.03 | 0.00 | 74 | 1004.2 |
| 20260506081539 | 13 | 325 | 1.6 | 4.8 | 0.00 | 0.03 | 0.00 | 74 | 1004.2 |
| 20260506081228 | 13 | 325 | 1.6 | 4.8 | 0.00 | 0.03 | 0.00 | 74 | 1004.2 |
| 20260506081129 | 13 | 325 | 1.6 | 4.8 | 0.00 | 0.03 | 0.00 | 74 | 1004.2 |
| 20260506081031 | 13 | 323 | 1.6 | 4.8 | 0.00 | 0.03 | 0.00 | 74 | 1004.2 |
| 20260506080929 | 13 | 323 | 1.6 | 6.4 | 0.00 | 0.03 | 0.00 | 74 | 1004.2 |
| 20260506080830 | 13 | 323 | 1.6 | 6.4 | 0.00 | 0.03 | 0.00 | 74 | 1004.2 |
| 20260506080730 | 13 | 323 | 1.6 | 6.4 | 0.00 | 0.03 | 0.00 | 74 | 1004.2 |
| 20260506080629 | 13 | 324 | 1.6 | 6.4 | 0.00 | 0.03 | 0.00 | 74 | 1004.2 |
| 20260506080529 | 13 | 9 | 3.2 | 6.4 | 0.00 | 0.03 | 0.00 | 74 | 1004.2 |
| 20260506080429 | 13 | 9 | 3.2 | 6.4 | 0.00 | 0.03 | 0.00 | 74 | 1004.2 |
| 20260506080330 | 13 | 9 | 1.6 | 6.4 | 0.00 | 0.03 | 0.00 | 74 | 1004.2 |
| 20260506080230 | 13 | 9 | 1.6 | 6.4 | 0.00 | 0.03 | 0.00 | 74 | 1004.1 |
| 20260506080130 | 13 | 9 | 1.6 | 6.4 | 0.00 | 0.03 | 0.00 | 75 | 1004.1 |
| 20260506073521 | 12 | 120 | 0.0 | 1.6 | 0.00 | 0.03 | 0.00 | 77 | 1004.1 |
| 20260506073419 | 12 | 120 | 0.0 | 1.6 | 0.00 | 0.03 | 0.00 | 77 | 1004.1 |
| 20260506073329 | 12 | 119 | 0.0 | 1.6 | 0.00 | 0.03 | 0.00 | 77 | 1004.1 |
| 20260506073319 | 12 | 120 | 0.0 | 1.6 | 0.00 | 0.03 | 0.00 | 78 | 1004.1 |
| 20260506073219 | 12 | 120 | 0.0 | 1.6 | 0.00 | 0.03 | 0.00 | 78 | 1004.2 |
| 20260506073119 | 12 | 120 | 0.0 | 1.6 | 0.00 | 0.03 | 0.00 | 78 | 1004.2 |
| 20260506073100 | 12 | 119 | 0.0 | 1.6 | 0.00 | 0.03 | 0.00 | 79 | 1004.2 |
| 20260506073048 | 12 | 119 | 0.0 | 1.6 | 0.00 | 0.03 | 0.00 | 78 | 1004.2 |
| 20260506073040 | 12 | 119 | 0.0 | 1.6 | 0.00 | 0.03 | 0.00 | 79 | 1004.2 |
| 20260506072819 | 12 | 119 | 0.0 | 1.6 | 0.00 | 0.03 | 0.00 | 79 | 1004.2 |
| 20260506072719 | 12 | 119 | 0.0 | 1.6 | 0.00 | 0.03 | 0.00 | 80 | 1004.2 |
| 20260506072619 | 12 | 119 | 0.0 | 1.6 | 0.00 | 0.03 | 0.00 | 79 | 1004.3 |
| 20260506072517 | 12 | 119 | 0.0 | 3.2 | 0.00 | 0.03 | 0.00 | 79 | 1004.3 |
| 20260506072417 | 12 | 119 | 0.0 | 3.2 | 0.00 | 0.03 | 0.00 | 79 | 1004.4 |
| 20260506072315 | 12 | 119 | 0.0 | 3.2 | 0.00 | 0.03 | 0.00 | 80 | 1004.4 |
| 20260506072216 | 12 | 119 | 0.0 | 3.2 | 0.00 | 0.03 | 0.00 | 81 | 1004.4 |
| 20260506072113 | 12 | 119 | 0.0 | 3.2 | 0.00 | 0.03 | 0.00 | 81 | 1004.5 |
| 20260506072011 | 12 | 119 | 0.0 | 3.2 | 0.00 | 0.03 | 0.00 | 81 | 1004.5 |
| 20260506071911 | 12 | 119 | 0.0 | 3.2 | 0.00 | 0.03 | 0.00 | 81 | 1004.5 |
| 20260506071809 | 12 | 119 | 0.0 | 3.2 | 0.00 | 0.03 | 0.00 | 80 | 1004.5 |
| 20260506071709 | 12 | 119 | 0.0 | 3.2 | 0.00 | 0.03 | 0.00 | 81 | 1004.5 |
| 20260506071608 | 12 | 119 | 0.0 | 3.2 | 0.00 | 0.03 | 0.00 | 83 | 1004.5 |
| 20260506071510 | 12 | 119 | 0.0 | 1.6 | 0.00 | 0.03 | 0.00 | 82 | 1004.5 |
| 20260506071405 | 12 | 119 | 0.0 | 1.6 | 0.00 | 0.03 | 0.00 | 83 | 1004.5 |
| 20260506071303 | 12 | 119 | 0.0 | 1.6 | 0.00 | 0.03 | 0.00 | 83 | 1004.5 |
| 20260506071203 | 12 | 119 | 0.0 | 1.6 | 0.00 | 0.03 | 0.00 | 82 | 1004.5 |
| 20260506071104 | 12 | 119 | 0.0 | 1.6 | 0.00 | 0.03 | 0.00 | 82 | 1004.5 |
| 20260506071100 | 12 | 119 | 0.0 | 1.6 | 0.00 | 0.03 | 0.00 | 83 | 1004.5 |
| 20260506071050 | 12 | 119 | 0.0 | 1.6 | 0.00 | 0.03 | 0.00 | 81 | 1004.4 |
| 20260506071042 | 12 | 119 | 0.0 | 1.6 | 0.00 | 0.03 | 0.00 | 81 | 1004.4 |
| 20260506070801 | 12 | 119 | 0.0 | 1.6 | 0.00 | 0.03 | 0.00 | 83 | 1004.5 |
| 20260506070701 | 12 | 119 | 0.0 | 1.6 | 0.00 | 0.03 | 0.00 | 83 | 1004.5 |
| 20260506070602 | 12 | 119 | 0.0 | 1.6 | 0.00 | 0.03 | 0.00 | 83 | 1004.4 |
| 20260506070506 | 12 | 119 | 0.0 | 1.6 | 0.00 | 0.03 | 0.00 | 83 | 1004.5 |
| 20260506070401 | 12 | 119 | 0.0 | 1.6 | 0.00 | 0.03 | 0.00 | 83 | 1004.5 |
| 20260506070301 | 11 | 119 | 0.0 | 1.6 | 0.00 | 0.03 | 0.00 | 83 | 1004.4 |
| 20260506070201 | 11 | 119 | 0.0 | 1.6 | 0.00 | 0.03 | 0.00 | 82 | 1004.5 |
| 20260506062501 | 11 | 105 | 0.0 | 4.8 | 0.00 | 0.03 | 0.00 | 85 | 1004.5 |
| 20260506062400 | 11 | 105 | 0.0 | 4.8 | 0.00 | 0.03 | 0.00 | 85 | 1004.5 |
| 20260506062300 | 11 | 105 | 0.0 | 4.8 | 0.00 | 0.03 | 0.00 | 85 | 1004.5 |
| 20260506062200 | 10 | 105 | 0.0 | 4.8 | 0.00 | 0.03 | 0.00 | 86 | 1004.5 |
| 20260506062101 | 10 | 105 | 0.0 | 4.8 | 0.00 | 0.03 | 0.00 | 86 | 1004.5 |
| 20260506062001 | 10 | 105 | 1.6 | 4.8 | 0.00 | 0.03 | 0.00 | 86 | 1004.5 |
| 20260506061901 | 10 | 105 | 1.6 | 4.8 | 0.00 | 0.03 | 0.00 | 86 | 1004.5 |
| 20260506061801 | 10 | 105 | 1.6 | 4.8 | 0.00 | 0.03 | 0.00 | 86 | 1004.5 |
| 20260506061701 | 10 | 105 | 1.6 | 4.8 | 0.00 | 0.03 | 0.00 | 86 | 1004.5 |
| 20260506061600 | 10 | 115 | 1.6 | 4.8 | 0.00 | 0.03 | 0.00 | 87 | 1004.5 |
| 20260506061500 | 10 | 115 | 1.6 | 4.8 | 0.00 | 0.03 | 0.00 | 86 | 1004.5 |
| 20260506061404 | 10 | 115 | 1.6 | 4.8 | 0.00 | 0.03 | 0.00 | 86 | 1004.6 |
| 20260506061329 | 10 | 116 | 1.6 | 4.8 | 0.00 | 0.03 | 0.00 | 86 | 1004.6 |
| 20260506061257 | 10 | 117 | 1.6 | 4.8 | 0.00 | 0.03 | 0.00 | 87 | 1004.6 |
| 20260506061155 | 10 | 117 | 1.6 | 4.8 | 0.00 | 0.03 | 0.00 | 87 | 1004.6 |
| 20260506061055 | 10 | 117 | 1.6 | 4.8 | 0.00 | 0.03 | 0.00 | 87 | 1004.7 |
| 20260506060955 | 10 | 117 | 1.6 | 4.8 | 0.00 | 0.03 | 0.00 | 87 | 1004.7 |
| 20260506060859 | 10 | 118 | 1.6 | 6.4 | 0.00 | 0.03 | 0.00 | 88 | 1004.7 |
| 20260506060829 | 10 | 118 | 1.6 | 6.4 | 0.00 | 0.03 | 0.00 | 87 | 1004.7 |
| 20260506060751 | 10 | 117 | 1.6 | 6.4 | 0.00 | 0.03 | 0.00 | 87 | 1004.6 |
| 20260506060649 | 10 | 117 | 3.2 | 6.4 | 0.00 | 0.03 | 0.00 | 87 | 1004.7 |
| 20260506060549 | 10 | 117 | 3.2 | 6.4 | 0.00 | 0.03 | 0.00 | 88 | 1004.6 |
| 20260506060449 | 10 | 117 | 3.2 | 6.4 | 0.00 | 0.03 | 0.00 | 88 | 1004.7 |
| 20260506060329 | 10 | 118 | 3.2 | 6.4 | 0.00 | 0.03 | 0.00 | 88 | 1004.6 |
| 20260506060243 | 10 | 133 | 3.2 | 6.4 | 0.00 | 0.03 | 0.00 | 88 | 1004.6 |
| 20260506060143 | 10 | 134 | 3.2 | 6.4 | 0.00 | 0.03 | 0.00 | 88 | 1004.6 |
| 20260506051315 | 7 | 109 | 0.0 | 3.2 | 0.00 | 0.03 | 0.00 | 92 | 1004.7 |
| 20260506051229 | 7 | 109 | 0.0 | 3.2 | 0.00 | 0.03 | 0.00 | 92 | 1004.7 |
| 20260506051129 | 7 | 109 | 0.0 | 1.6 | 0.00 | 0.03 | 0.00 | 92 | 1004.7 |
| 20260506050928 | 7 | 109 | 0.0 | 1.6 | 0.00 | 0.03 | 0.00 | 92 | 1004.7 |
| 20260506050813 | 7 | 109 | 0.0 | 1.6 | 0.00 | 0.03 | 0.00 | 92 | 1004.7 |
| 20260506050729 | 7 | 109 | 0.0 | 1.6 | 0.00 | 0.03 | 0.00 | 92 | 1004.7 |
| 20260506050629 | 7 | 109 | 0.0 | 1.6 | 0.00 | 0.03 | 0.00 | 92 | 1004.7 |
| 20260506050529 | 7 | 109 | 0.0 | 1.6 | 0.00 | 0.03 | 0.00 | 91 | 1004.7 |
| 20260506050429 | 7 | 109 | 0.0 | 1.6 | 0.00 | 0.03 | 0.00 | 91 | 1004.7 |
| 20260506050311 | 7 | 109 | 0.0 | 1.6 | 0.00 | 0.03 | 0.00 | 91 | 1004.7 |
| 20260506050229 | 7 | 109 | 0.0 | 1.6 | 0.00 | 0.03 | 0.00 | 91 | 1004.9 |
| 20260506050129 | 7 | 109 | 0.0 | 1.6 | 0.00 | 0.03 | 0.00 | 91 | 1004.9 |
| 20260506045129 | 7 | 109 | 1.6 | 3.2 | 0.00 | 0.03 | 0.00 | 90 | 1005.0 |
| 20260506045029 | 7 | 109 | 1.6 | 3.2 | 0.00 | 0.03 | 0.00 | 90 | 1005.0 |
| 20260506044929 | 7 | 109 | 1.6 | 3.2 | 0.00 | 0.03 | 0.00 | 90 | 1005.0 |
| 20260506044812 | 7 | 109 | 1.6 | 3.2 | 0.00 | 0.03 | 0.00 | 90 | 1005.0 |
| 20260506044729 | 7 | 109 | 0.0 | 3.2 | 0.00 | 0.03 | 0.00 | 90 | 1005.0 |
| 20260506044629 | 7 | 108 | 0.0 | 3.2 | 0.00 | 0.03 | 0.00 | 90 | 1005.0 |
| 20260506044529 | 7 | 108 | 0.0 | 3.2 | 0.00 | 0.03 | 0.00 | 90 | 1005.0 |
| 20260506044429 | 7 | 108 | 0.0 | 3.2 | 0.00 | 0.03 | 0.00 | 90 | 1005.0 |
| 20260506044329 | 7 | 108 | 0.0 | 3.2 | 0.00 | 0.03 | 0.00 | 90 | 1005.0 |
| 20260506044310 | 7 | 108 | 0.0 | 3.2 | 0.00 | 0.03 | 0.00 | 90 | 1005.0 |
| 20260506044229 | 7 | 108 | 0.0 | 3.2 | 0.00 | 0.03 | 0.00 | 89 | 1004.9 |
| 20260506044129 | 7 | 108 | 0.0 | 3.2 | 0.00 | 0.03 | 0.00 | 89 | 1004.9 |
| 20260506044030 | 7 | 108 | 0.0 | 3.2 | 0.00 | 0.03 | 0.00 | 89 | 1004.9 |
| 20260506043811 | 7 | 108 | 0.0 | 3.2 | 0.00 | 0.03 | 0.00 | 89 | 1004.9 |
| 20260506043727 | 7 | 108 | 0.0 | 3.2 | 0.00 | 0.03 | 0.00 | 89 | 1004.9 |
| 20260506043627 | 7 | 108 | 0.0 | 3.2 | 0.00 | 0.03 | 0.00 | 88 | 1004.9 |
| 20260506043524 | 7 | 108 | 0.0 | 1.6 | 0.00 | 0.03 | 0.00 | 88 | 1005.0 |
| 20260506043423 | 7 | 108 | 0.0 | 1.6 | 0.00 | 0.03 | 0.00 | 88 | 1005.0 |
| 20260506043311 | 7 | 108 | 0.0 | 1.6 | 0.00 | 0.03 | 0.00 | 88 | 1005.0 |
| 20260506043221 | 7 | 108 | 0.0 | 1.6 | 0.00 | 0.03 | 0.00 | 88 | 1005.1 |
| 20260506043120 | 7 | 108 | 0.0 | 3.2 | 0.00 | 0.03 | 0.00 | 87 | 1005.0 |
| 20260506043018 | 7 | 108 | 0.0 | 3.2 | 0.00 | 0.03 | 0.00 | 87 | 1005.0 |
| 20260506042919 | 7 | 108 | 0.0 | 3.2 | 0.00 | 0.03 | 0.00 | 87 | 1005.1 |
| 20260506042809 | 7 | 108 | 1.6 | 3.2 | 0.00 | 0.03 | 0.00 | 87 | 1005.1 |
| 20260506042717 | 7 | 108 | 1.6 | 3.2 | 0.00 | 0.03 | 0.00 | 87 | 1005.1 |
| 20260506042615 | 7 | 108 | 1.6 | 3.2 | 0.00 | 0.03 | 0.00 | 87 | 1005.1 |
| 20260506042513 | 7 | 108 | 1.6 | 3.2 | 0.00 | 0.03 | 0.00 | 88 | 1005.1 |
| 20260506042413 | 7 | 108 | 1.6 | 3.2 | 0.00 | 0.03 | 0.00 | 88 | 1005.1 |
| 20260506042311 | 8 | 108 | 1.6 | 3.2 | 0.00 | 0.03 | 0.00 | 88 | 1005.2 |
| 20260506042306 | 7 | 108 | 1.6 | 3.2 | 0.00 | 0.03 | 0.00 | 88 | 1005.2 |
| 20260506042211 | 8 | 108 | 1.6 | 4.8 | 0.00 | 0.03 | 0.00 | 88 | 1005.2 |
| 20260506042109 | 8 | 108 | 1.6 | 4.8 | 0.00 | 0.03 | 0.00 | 88 | 1005.1 |
| 20260506042006 | 8 | 108 | 1.6 | 4.8 | 0.00 | 0.03 | 0.00 | 88 | 1005.2 |
| 20260506041904 | 8 | 108 | 1.6 | 4.8 | 0.00 | 0.03 | 0.00 | 88 | 1005.2 |
| 20260506041805 | 8 | 108 | 1.6 | 4.8 | 0.00 | 0.03 | 0.00 | 88 | 1005.1 |
| 20260506041703 | 8 | 108 | 0.0 | 4.8 | 0.00 | 0.03 | 0.00 | 88 | 1005.1 |
| 20260506041602 | 8 | 108 | 0.0 | 4.8 | 0.00 | 0.03 | 0.00 | 87 | 1005.1 |
| 20260506041503 | 8 | 108 | 0.0 | 4.8 | 0.00 | 0.03 | 0.00 | 87 | 1005.1 |
| 20260506041401 | 8 | 108 | 0.0 | 4.8 | 0.00 | 0.03 | 0.00 | 87 | 1005.2 |
| 20260506041301 | 8 | 108 | 0.0 | 4.8 | 0.00 | 0.03 | 0.00 | 88 | 1005.2 |
| 20260506041201 | 8 | 100 | 0.0 | 3.2 | 0.00 | 0.03 | 0.00 | 88 | 1005.1 |
| 20260506041101 | 8 | 100 | 0.0 | 3.2 | 0.00 | 0.03 | 0.00 | 88 | 1005.1 |
| 20260506041020 | 8 | 99 | 0.0 | 1.6 | 0.00 | 0.03 | 0.00 | 88 | 1005.1 |
| 20260506041016 | 8 | 99 | 0.0 | 1.6 | 0.00 | 0.03 | 0.00 | 89 | 1005.0 |
| 20260506041012 | 8 | 99 | 0.0 | 1.6 | 0.00 | 0.03 | 0.00 | 89 | 1005.0 |
| 20260506040701 | 8 | 98 | 0.0 | 1.6 | 0.00 | 0.03 | 0.00 | 89 | 1005.0 |
| 20260506040601 | 8 | 98 | 0.0 | 1.6 | 0.00 | 0.03 | 0.00 | 89 | 1005.0 |
| 20260506040501 | 8 | 98 | 0.0 | 1.6 | 0.00 | 0.03 | 0.00 | 89 | 1005.0 |
| 20260506040401 | 8 | 98 | 0.0 | 1.6 | 0.00 | 0.03 | 0.00 | 89 | 1005.1 |
| 20260506040301 | 8 | 98 | 0.0 | 1.6 | 0.00 | 0.03 | 0.00 | 89 | 1005.0 |
| 20260506040201 | 8 | 98 | 0.0 | 1.6 | 0.00 | 0.03 | 0.00 | 89 | 1005.1 |
| 20260506040101 | 8 | 98 | 0.0 | 1.6 | 0.00 | 0.03 | 0.00 | 89 | 1005.1 |
| 20260506040001 | 8 | 98 | 0.0 | 3.2 | 0.00 | 0.03 | 0.00 | 89 | 1005.1 |
| 20260506035901 | 8 | 98 | 0.0 | 3.2 | 0.00 | 0.03 | 0.00 | 89 | 1005.1 |
| 20260506035800 | 8 | 98 | 0.0 | 3.2 | 0.00 | 0.03 | 0.00 | 89 | 1005.2 |
| 20260506035701 | 8 | 98 | 0.0 | 3.2 | 0.00 | 0.03 | 0.00 | 89 | 1005.2 |
| 20260506035601 | 8 | 98 | 0.0 | 3.2 | 0.00 | 0.03 | 0.00 | 89 | 1005.1 |
| 20260506035501 | 8 | 98 | 0.0 | 3.2 | 0.00 | 0.03 | 0.00 | 89 | 1005.1 |
| 20260506035401 | 8 | 98 | 0.0 | 3.2 | 0.00 | 0.03 | 0.00 | 89 | 1005.1 |
| 20260506035300 | 8 | 98 | 0.0 | 3.2 | 0.00 | 0.03 | 0.00 | 89 | 1005.1 |
| 20260506035254 | 8 | 98 | 0.0 | 3.2 | 0.00 | 0.03 | 0.00 | 89 | 1005.1 |
| 20260506035200 | 8 | 98 | 0.0 | 3.2 | 0.00 | 0.03 | 0.00 | 89 | 1005.1 |
| 20260506035100 | 8 | 98 | 0.0 | 3.2 | 0.00 | 0.03 | 0.00 | 89 | 1005.1 |
| 20260506035006 | 8 | 99 | 0.0 | 1.6 | 0.00 | 0.03 | 0.00 | 89 | 1005.3 |
| 20260506035001 | 8 | 99 | 0.0 | 3.2 | 0.00 | 0.03 | 0.00 | 89 | 1005.2 |
| 20260506034901 | 8 | 99 | 0.0 | 3.2 | 0.00 | 0.03 | 0.00 | 89 | 1005.2 |
| 20260506034801 | 8 | 99 | 0.0 | 1.6 | 0.00 | 0.03 | 0.00 | 89 | 1005.2 |
| 20260506034701 | 8 | 99 | 0.0 | 1.6 | 0.00 | 0.03 | 0.00 | 89 | 1005.3 |
| 20260506034600 | 8 | 99 | 0.0 | 1.6 | 0.00 | 0.03 | 0.00 | 89 | 1005.3 |
| 20260506034500 | 8 | 99 | 0.0 | 0.0 | 0.00 | 0.03 | 0.00 | 89 | 1005.3 |
| 20260506034401 | 8 | 99 | 0.0 | 0.0 | 0.00 | 0.03 | 0.00 | 89 | 1005.3 |
| 20260506034301 | 8 | 99 | 0.0 | 0.0 | 0.00 | 0.03 | 0.00 | 89 | 1005.4 |
| 20260506034243 | 8 | 99 | 0.0 | 1.6 | 0.00 | 0.03 | 0.00 | 89 | 1005.4 |
| 20260506034201 | 8 | 99 | 0.0 | 1.6 | 0.00 | 0.03 | 0.00 | 89 | 1005.4 |
| 20260506034105 | 8 | 99 | 0.0 | 1.6 | 0.00 | 0.03 | 0.00 | 89 | 1005.4 |
| 20260506034006 | 8 | 99 | 0.0 | 1.6 | 0.00 | 0.03 | 0.00 | 89 | 1005.3 |
| 20260506034001 | 8 | 100 | 0.0 | 1.6 | 0.00 | 0.03 | 0.00 | 89 | 1005.4 |
| 20260506033957 | 8 | 99 | 0.0 | 1.6 | 0.00 | 0.03 | 0.00 | 89 | 1005.4 |
| 20260506033953 | 8 | 99 | 0.0 | 1.6 | 0.00 | 0.03 | 0.00 | 89 | 1005.3 |
| 20260506033701 | 8 | 99 | 0.0 | 1.6 | 0.00 | 0.03 | 0.00 | 89 | 1005.3 |
| 20260506033601 | 8 | 99 | 0.0 | 1.6 | 0.00 | 0.03 | 0.00 | 89 | 1005.3 |
| 20260506033501 | 8 | 99 | 0.0 | 1.6 | 0.00 | 0.03 | 0.00 | 89 | 1005.4 |
| 20260506033401 | 8 | 99 | 0.0 | 1.6 | 0.00 | 0.03 | 0.00 | 89 | 1005.4 |
| 20260506033301 | 8 | 99 | 0.0 | 1.6 | 0.00 | 0.03 | 0.00 | 89 | 1005.4 |
| 20260506033243 | 8 | 99 | 0.0 | 1.6 | 0.00 | 0.03 | 0.00 | 89 | 1005.4 |
| 20260506033201 | 8 | 99 | 0.0 | 1.6 | 0.00 | 0.03 | 0.00 | 89 | 1005.4 |
| 20260506033100 | 8 | 99 | 0.0 | 1.6 | 0.00 | 0.03 | 0.00 | 89 | 1005.4 |
| 20260506033001 | 8 | 99 | 0.0 | 1.6 | 0.00 | 0.03 | 0.00 | 89 | 1005.4 |
| 20260506032901 | 8 | 99 | 0.0 | 1.6 | 0.00 | 0.03 | 0.00 | 89 | 1005.4 |
| 20260506032801 | 8 | 99 | 0.0 | 1.6 | 0.00 | 0.03 | 0.00 | 89 | 1005.5 |
| 20260506032740 | 8 | 100 | 0.0 | 1.6 | 0.00 | 0.03 | 0.00 | 89 | 1005.4 |
| 20260506032701 | 8 | 99 | 0.0 | 1.6 | 0.00 | 0.03 | 0.00 | 89 | 1005.4 |
| 20260506032601 | 8 | 99 | 0.0 | 3.2 | 0.00 | 0.03 | 0.00 | 89 | 1005.4 |
| 20260506032501 | 8 | 99 | 0.0 | 3.2 | 0.00 | 0.03 | 0.00 | 89 | 1005.5 |
| 20260506032401 | 8 | 99 | 0.0 | 3.2 | 0.00 | 0.03 | 0.00 | 89 | 1005.5 |
| 20260506032254 | 8 | 99 | 0.0 | 3.2 | 0.00 | 0.03 | 0.00 | 89 | 1005.5 |
| 20260506032242 | 8 | 100 | 0.0 | 3.2 | 0.00 | 0.03 | 0.00 | 89 | 1005.5 |
| 20260506032055 | 8 | 99 | 0.0 | 3.2 | 0.00 | 0.03 | 0.00 | 89 | 1005.6 |
| 20260506031954 | 8 | 100 | 0.0 | 3.2 | 0.00 | 0.03 | 0.00 | 89 | 1005.6 |
| 20260506031854 | 8 | 99 | 0.0 | 3.2 | 0.00 | 0.03 | 0.00 | 89 | 1005.6 |
| 20260506031741 | 8 | 99 | 0.0 | 3.2 | 0.00 | 0.03 | 0.00 | 89 | 1005.6 |
| 20260506031651 | 8 | 99 | 0.0 | 3.2 | 0.00 | 0.03 | 0.00 | 89 | 1005.6 |
| 20260506031551 | 8 | 99 | 0.0 | 3.2 | 0.00 | 0.03 | 0.00 | 89 | 1005.6 |
| 20260506031450 | 8 | 99 | 0.0 | 3.2 | 0.00 | 0.03 | 0.00 | 89 | 1005.7 |
| 20260506031348 | 8 | 99 | 0.0 | 3.2 | 0.00 | 0.03 | 0.00 | 89 | 1005.7 |
| 20260506031241 | 8 | 99 | 0.0 | 3.2 | 0.00 | 0.03 | 0.00 | 89 | 1005.7 |
| 20260506031147 | 8 | 99 | 0.0 | 3.2 | 0.00 | 0.03 | 0.00 | 89 | 1005.7 |
| 20260506031047 | 8 | 99 | 0.0 | 3.2 | 0.00 | 0.03 | 0.00 | 89 | 1005.7 |
| 20260506030944 | 8 | 98 | 0.0 | 3.2 | 0.00 | 0.03 | 0.00 | 89 | 1005.8 |
| 20260506030842 | 8 | 98 | 0.0 | 3.2 | 0.00 | 0.03 | 0.00 | 89 | 1005.7 |
| 20260506030742 | 8 | 99 | 0.0 | 3.2 | 0.00 | 0.03 | 0.00 | 89 | 1005.7 |
| 20260506030640 | 8 | 98 | 0.0 | 3.2 | 0.00 | 0.03 | 0.00 | 89 | 1005.7 |
| 20260506030541 | 8 | 99 | 0.0 | 3.2 | 0.00 | 0.03 | 0.00 | 89 | 1005.7 |
| 20260506030501 | 8 | 99 | 0.0 | 1.6 | 0.00 | 0.03 | 0.00 | 89 | 1005.7 |
| 20260506030456 | 8 | 99 | 0.0 | 1.6 | 0.00 | 0.03 | 0.00 | 89 | 1005.7 |
| 20260506030452 | 8 | 98 | 0.0 | 1.6 | 0.00 | 0.03 | 0.00 | 89 | 1005.7 |
| 20260506030236 | 8 | 98 | 0.0 | 1.6 | 0.00 | 0.03 | 0.00 | 89 | 1005.7 |
| 20260506030136 | 8 | 99 | 0.0 | 1.6 | 0.00 | 0.03 | 0.00 | 89 | 1005.7 |
| 20260506030037 | 8 | 98 | 0.0 | 1.6 | 0.00 | 0.03 | 0.00 | 89 | 1005.7 |
| 20260506025935 | 8 | 98 | 0.0 | 1.6 | 0.00 | 0.03 | 0.00 | 89 | 1005.7 |
| 20260506025835 | 8 | 98 | 0.0 | 1.6 | 0.00 | 0.03 | 0.00 | 89 | 1005.6 |
| 20260506025735 | 8 | 98 | 0.0 | 1.6 | 0.00 | 0.03 | 0.00 | 89 | 1005.7 |
| 20260506025634 | 8 | 98 | 0.0 | 1.6 | 0.00 | 0.03 | 0.00 | 89 | 1005.7 |
| 20260506025532 | 8 | 98 | 0.0 | 1.6 | 0.00 | 0.03 | 0.00 | 89 | 1005.7 |
| 20260506025433 | 8 | 98 | 0.0 | 1.6 | 0.00 | 0.03 | 0.00 | 89 | 1005.7 |
| 20260506025333 | 8 | 98 | 0.0 | 1.6 | 0.00 | 0.03 | 0.00 | 89 | 1005.8 |
| 20260506025233 | 8 | 98 | 0.0 | 1.6 | 0.00 | 0.03 | 0.00 | 89 | 1005.8 |
| 20260506025132 | 8 | 98 | 0.0 | 1.6 | 0.00 | 0.03 | 0.00 | 89 | 1005.8 |
| 20260506025032 | 8 | 98 | 0.0 | 1.6 | 0.00 | 0.03 | 0.00 | 89 | 1005.8 |
| 20260506024931 | 8 | 98 | 0.0 | 3.2 | 0.00 | 0.03 | 0.00 | 89 | 1005.7 |
| 20260506024831 | 8 | 98 | 0.0 | 3.2 | 0.00 | 0.03 | 0.00 | 89 | 1005.7 |
| 20260506024730 | 8 | 98 | 0.0 | 3.2 | 0.00 | 0.03 | 0.00 | 89 | 1005.7 |
| 20260506024629 | 8 | 98 | 0.0 | 3.2 | 0.00 | 0.03 | 0.00 | 89 | 1005.8 |
| 20260506024529 | 8 | 99 | 0.0 | 3.2 | 0.00 | 0.03 | 0.00 | 89 | 1005.8 |
| 20260506024429 | 8 | 99 | 1.6 | 3.2 | 0.00 | 0.03 | 0.00 | 89 | 1005.8 |
| 20260506024329 | 8 | 98 | 1.6 | 3.2 | 0.00 | 0.03 | 0.00 | 89 | 1005.8 |
| 20260506024226 | 8 | 98 | 1.6 | 3.2 | 0.00 | 0.03 | 0.00 | 89 | 1005.8 |
| 20260506024126 | 8 | 99 | 1.6 | 3.2 | 0.00 | 0.03 | 0.00 | 89 | 1005.8 |
| 20260506024024 | 8 | 98 | 1.6 | 4.8 | 0.00 | 0.03 | 0.00 | 89 | 1005.8 |
| 20260506023925 | 8 | 98 | 1.6 | 4.8 | 0.00 | 0.03 | 0.00 | 88 | 1005.8 |
| 20260506023825 | 8 | 109 | 1.6 | 4.8 | 0.00 | 0.03 | 0.00 | 89 | 1005.8 |
| 20260506023735 | 8 | 111 | 1.6 | 4.8 | 0.00 | 0.03 | 0.00 | 89 | 1005.9 |
| 20260506023725 | 8 | 112 | 1.6 | 4.8 | 0.00 | 0.03 | 0.00 | 89 | 1005.9 |
| 20260506023625 | 8 | 122 | 1.6 | 4.8 | 0.00 | 0.03 | 0.00 | 89 | 1005.8 |
| 20260506023524 | 8 | 126 | 1.6 | 4.8 | 0.00 | 0.03 | 0.00 | 89 | 1005.9 |
| 20260506023422 | 8 | 113 | 1.6 | 4.8 | 0.00 | 0.03 | 0.00 | 89 | 1005.9 |
| 20260506023322 | 8 | 113 | 1.6 | 4.8 | 0.00 | 0.03 | 0.00 | 90 | 1005.9 |
| 20260506023222 | 8 | 112 | 1.6 | 4.8 | 0.00 | 0.03 | 0.00 | 89 | 1005.9 |
| 20260506023123 | 8 | 113 | 1.6 | 4.8 | 0.00 | 0.03 | 0.00 | 89 | 1006.0 |
| 20260506023021 | 8 | 111 | 1.6 | 4.8 | 0.00 | 0.03 | 0.00 | 89 | 1005.9 |
| 20260506022920 | 8 | 109 | 1.6 | 4.8 | 0.00 | 0.03 | 0.00 | 89 | 1006.0 |
| 20260506022820 | 8 | 109 | 1.6 | 3.2 | 0.00 | 0.03 | 0.00 | 90 | 1006.0 |
| 20260506022720 | 8 | 111 | 1.6 | 3.2 | 0.00 | 0.03 | 0.00 | 90 | 1005.9 |
| 20260506022620 | 8 | 111 | 1.6 | 3.2 | 0.00 | 0.03 | 0.00 | 90 | 1006.0 |
| 20260506022519 | 8 | 111 | 1.6 | 3.2 | 0.00 | 0.03 | 0.00 | 90 | 1006.0 |
| 20260506022419 | 8 | 111 | 1.6 | 3.2 | 0.00 | 0.03 | 0.00 | 90 | 1006.0 |
| 20260506022315 | 8 | 111 | 1.6 | 3.2 | 0.00 | 0.03 | 0.00 | 90 | 1006.0 |
| 20260506022215 | 8 | 111 | 0.0 | 3.2 | 0.00 | 0.03 | 0.00 | 90 | 1006.0 |
| 20260506022114 | 8 | 111 | 0.0 | 3.2 | 0.00 | 0.03 | 0.00 | 90 | 1005.9 |
| 20260506022014 | 8 | 111 | 0.0 | 3.2 | 0.00 | 0.03 | 0.00 | 90 | 1005.9 |
| 20260506021949 | 7 | 111 | 0.0 | 1.6 | 0.00 | 0.03 | 0.00 | 90 | 1005.7 |
| 20260506021944 | 8 | 111 | 0.0 | 3.2 | 0.00 | 0.03 | 0.00 | 90 | 1005.8 |
| 20260506021940 | 8 | 111 | 0.0 | 3.2 | 0.00 | 0.03 | 0.00 | 90 | 1005.8 |
| 20260506021715 | 8 | 111 | 0.0 | 1.6 | 0.00 | 0.03 | 0.00 | 90 | 1005.7 |
| 20260506021614 | 8 | 111 | 0.0 | 1.6 | 0.00 | 0.03 | 0.00 | 90 | 1005.7 |
| 20260506021514 | 8 | 111 | 0.0 | 1.6 | 0.00 | 0.03 | 0.00 | 90 | 1005.7 |
| 20260506021414 | 8 | 111 | 0.0 | 3.2 | 0.00 | 0.03 | 0.00 | 90 | 1005.7 |
| 20260506021314 | 8 | 111 | 0.0 | 3.2 | 0.00 | 0.03 | 0.00 | 90 | 1005.7 |
| 20260506021215 | 8 | 111 | 0.0 | 3.2 | 0.00 | 0.03 | 0.00 | 90 | 1005.7 |
| 20260506021115 | 8 | 111 | 0.0 | 3.2 | 0.00 | 0.03 | 0.00 | 90 | 1005.8 |
| 20260506021015 | 8 | 111 | 0.0 | 3.2 | 0.00 | 0.03 | 0.00 | 90 | 1005.8 |
| 20260506020953 | 8 | 109 | 0.0 | 3.2 | 0.00 | 0.03 | 0.00 | 90 | 1005.8 |
| 20260506020944 | 8 | 111 | 0.0 | 3.2 | 0.00 | 0.03 | 0.00 | 90 | 1005.8 |
| 20260506020940 | 8 | 109 | 0.0 | 3.2 | 0.00 | 0.03 | 0.00 | 90 | 1005.8 |
| 20260506020715 | 8 | 108 | 0.0 | 3.2 | 0.00 | 0.03 | 0.00 | 90 | 1005.8 |
| 20260506020615 | 8 | 108 | 0.0 | 3.2 | 0.00 | 0.03 | 0.00 | 90 | 1005.9 |
| 20260506020515 | 8 | 108 | 0.0 | 3.2 | 0.00 | 0.03 | 0.00 | 90 | 1005.9 |
| 20260506020410 | 8 | 108 | 0.0 | 3.2 | 0.00 | 0.03 | 0.00 | 90 | 1005.9 |
| 20260506020310 | 8 | 108 | 0.0 | 3.2 | 0.00 | 0.03 | 0.00 | 90 | 1005.9 |
| 20260506020211 | 8 | 108 | 0.0 | 3.2 | 0.00 | 0.03 | 0.00 | 90 | 1005.9 |
| 20260506020111 | 8 | 109 | 0.0 | 3.2 | 0.00 | 0.03 | 0.00 | 90 | 1006.0 |
| 20260506020011 | 8 | 109 | 0.0 | 3.2 | 0.00 | 0.03 | 0.00 | 89 | 1006.0 |
| 20260506015910 | 8 | 109 | 0.0 | 3.2 | 0.00 | 0.03 | 0.00 | 89 | 1006.0 |
| 20260506015810 | 8 | 107 | 1.6 | 4.8 | 0.00 | 0.03 | 0.00 | 89 | 1006.0 |
| 20260506015711 | 8 | 107 | 1.6 | 4.8 | 0.00 | 0.03 | 0.00 | 89 | 1006.0 |
| 20260506015610 | 8 | 107 | 1.6 | 4.8 | 0.00 | 0.03 | 0.00 | 89 | 1006.0 |
| 20260506015510 | 8 | 107 | 1.6 | 4.8 | 0.00 | 0.03 | 0.00 | 89 | 1006.0 |
| 20260506015411 | 8 | 107 | 1.6 | 4.8 | 0.00 | 0.03 | 0.00 | 89 | 1006.1 |
| 20260506015310 | 8 | 107 | 1.6 | 4.8 | 0.00 | 0.03 | 0.00 | 90 | 1006.1 |
| 20260506015210 | 8 | 107 | 1.6 | 4.8 | 0.00 | 0.03 | 0.00 | 90 | 1006.1 |
| 20260506015111 | 8 | 107 | 1.6 | 4.8 | 0.00 | 0.03 | 0.00 | 90 | 1006.0 |
| 20260506015011 | 8 | 107 | 1.6 | 4.8 | 0.00 | 0.03 | 0.00 | 90 | 1006.0 |
| 20260506014911 | 8 | 107 | 1.6 | 4.8 | 0.00 | 0.03 | 0.00 | 90 | 1006.0 |
| 20260506014811 | 8 | 109 | 1.6 | 4.8 | 0.00 | 0.03 | 0.00 | 90 | 1006.0 |
| 20260506014729 | 8 | 109 | 1.6 | 4.8 | 0.00 | 0.03 | 0.00 | 90 | 1006.0 |
| 20260506014710 | 8 | 111 | 1.6 | 4.8 | 0.00 | 0.03 | 0.00 | 90 | 1006.0 |
| 20260506014610 | 8 | 111 | 1.6 | 4.8 | 0.00 | 0.03 | 0.00 | 90 | 1006.0 |
| 20260506014506 | 8 | 111 | 1.6 | 4.8 | 0.00 | 0.03 | 0.00 | 90 | 1005.9 |
| 20260506014456 | 8 | 115 | 0.0 | 3.2 | 0.00 | 0.03 | 0.00 | 90 | 1006.0 |
| 20260506014445 | 8 | 114 | 1.6 | 3.2 | 0.00 | 0.03 | 0.00 | 90 | 1005.9 |
| 20260506014441 | 8 | 115 | 0.0 | 3.2 | 0.00 | 0.03 | 0.00 | 90 | 1005.9 |
| 20260506014207 | 8 | 115 | 0.0 | 3.2 | 0.00 | 0.03 | 0.00 | 90 | 1006.0 |
| 20260506014106 | 8 | 115 | 0.0 | 3.2 | 0.00 | 0.03 | 0.00 | 90 | 1005.9 |
| 20260506014006 | 8 | 115 | 0.0 | 3.2 | 0.00 | 0.03 | 0.00 | 90 | 1006.0 |
| 20260506013957 | 8 | 115 | 0.0 | 3.2 | 0.00 | 0.03 | 0.00 | 89 | 1005.9 |
| 20260506013946 | 8 | 115 | 0.0 | 3.2 | 0.00 | 0.03 | 0.00 | 90 | 1005.9 |
| 20260506013942 | 8 | 115 | 0.0 | 3.2 | 0.00 | 0.03 | 0.00 | 89 | 1005.9 |
| 20260506013707 | 8 | 115 | 0.0 | 3.2 | 0.00 | 0.03 | 0.00 | 89 | 1005.9 |
| 20260506013607 | 8 | 115 | 0.0 | 3.2 | 0.00 | 0.03 | 0.00 | 89 | 1005.9 |
| 20260506013507 | 8 | 115 | 0.0 | 3.2 | 0.00 | 0.03 | 0.00 | 89 | 1005.9 |
| 20260506013455 | 8 | 115 | 0.0 | 3.2 | 0.00 | 0.03 | 0.00 | 89 | 1005.8 |
| 20260506013445 | 8 | 115 | 0.0 | 3.2 | 0.00 | 0.03 | 0.00 | 89 | 1005.9 |
| 20260506013441 | 8 | 115 | 0.0 | 3.2 | 0.00 | 0.03 | 0.00 | 89 | 1005.9 |
| 20260506013206 | 8 | 115 | 0.0 | 3.2 | 0.00 | 0.03 | 0.00 | 89 | 1005.8 |
| 20260506013106 | 8 | 115 | 1.6 | 3.2 | 0.00 | 0.03 | 0.00 | 89 | 1005.9 |
| 20260506013006 | 8 | 115 | 1.6 | 3.2 | 0.00 | 0.03 | 0.00 | 89 | 1005.9 |
| 20260506012907 | 8 | 115 | 1.6 | 3.2 | 0.00 | 0.03 | 0.00 | 89 | 1006.0 |
| 20260506012807 | 8 | 115 | 1.6 | 3.2 | 0.00 | 0.03 | 0.00 | 89 | 1006.0 |
| 20260506012707 | 8 | 115 | 1.6 | 3.2 | 0.00 | 0.03 | 0.00 | 89 | 1006.0 |
| 20260506012602 | 8 | 115 | 1.6 | 3.2 | 0.00 | 0.03 | 0.00 | 89 | 1006.0 |
| 20260506012502 | 8 | 117 | 1.6 | 3.2 | 0.00 | 0.03 | 0.00 | 89 | 1006.0 |
| 20260506012453 | 8 | 117 | 1.6 | 3.2 | 0.00 | 0.03 | 0.00 | 89 | 1006.0 |
| 20260506012443 | 8 | 117 | 1.6 | 3.2 | 0.00 | 0.03 | 0.00 | 89 | 1006.1 |
| 20260506012439 | 8 | 117 | 1.6 | 3.2 | 0.00 | 0.03 | 0.00 | 89 | 1006.0 |
| 20260506012203 | 8 | 117 | 1.6 | 3.2 | 0.00 | 0.03 | 0.00 | 89 | 1006.0 |
| 20260506012103 | 8 | 117 | 1.6 | 3.2 | 0.00 | 0.03 | 0.00 | 89 | 1006.0 |
| 20260506012003 | 8 | 117 | 1.6 | 4.8 | 0.00 | 0.03 | 0.00 | 88 | 1006.1 |
| 20260506011902 | 8 | 117 | 1.6 | 6.4 | 0.00 | 0.03 | 0.00 | 88 | 1006.1 |
| 20260506011801 | 8 | 117 | 1.6 | 6.4 | 0.00 | 0.03 | 0.00 | 89 | 1006.2 |
| 20260506011702 | 8 | 117 | 1.6 | 6.4 | 0.00 | 0.03 | 0.00 | 89 | 1006.1 |
| 20260506011602 | 8 | 117 | 1.6 | 6.4 | 0.00 | 0.03 | 0.00 | 89 | 1006.2 |
| 20260506011500 | 8 | 117 | 1.6 | 6.4 | 0.00 | 0.03 | 0.00 | 89 | 1006.2 |
| 20260506011401 | 8 | 117 | 1.6 | 6.4 | 0.00 | 0.03 | 0.00 | 89 | 1006.2 |
| 20260506011300 | 8 | 117 | 1.6 | 6.4 | 0.00 | 0.03 | 0.00 | 89 | 1006.2 |
| 20260506011230 | 8 | 117 | 1.6 | 6.4 | 0.00 | 0.03 | 0.00 | 89 | 1006.2 |
| 20260506011200 | 8 | 119 | 1.6 | 6.4 | 0.00 | 0.03 | 0.00 | 89 | 1006.2 |
| 20260506011100 | 8 | 119 | 1.6 | 6.4 | 0.00 | 0.03 | 0.00 | 89 | 1006.2 |
| 20260506011001 | 8 | 135 | 1.6 | 6.4 | 0.00 | 0.03 | 0.00 | 89 | 1006.3 |
| 20260506010901 | 8 | 144 | 1.6 | 4.8 | 0.00 | 0.03 | 0.00 | 90 | 1006.3 |
| 20260506010801 | 8 | 145 | 1.6 | 4.8 | 0.00 | 0.03 | 0.00 | 90 | 1006.3 |
| 20260506010729 | 8 | 145 | 1.6 | 4.8 | 0.00 | 0.03 | 0.00 | 90 | 1006.3 |
| 20260506010700 | 8 | 146 | 1.6 | 3.2 | 0.00 | 0.03 | 0.00 | 89 | 1006.3 |
| 20260506010600 | 8 | 148 | 1.6 | 3.2 | 0.00 | 0.03 | 0.00 | 89 | 1006.3 |
| 20260506010501 | 8 | 148 | 1.6 | 3.2 | 0.00 | 0.03 | 0.00 | 89 | 1006.3 |
| 20260506010400 | 8 | 148 | 1.6 | 4.8 | 0.00 | 0.03 | 0.00 | 89 | 1006.3 |
| 20260506010301 | 8 | 148 | 1.6 | 4.8 | 0.00 | 0.03 | 0.00 | 89 | 1006.2 |
| 20260506010201 | 8 | 148 | 1.6 | 4.8 | 0.00 | 0.03 | 0.00 | 89 | 1006.3 |
| 20260506010001 | 8 | 148 | 1.6 | 4.8 | 0.00 | 0.03 | 0.00 | 89 | 1006.2 |
| 20260506005900 | 8 | 148 | 1.6 | 4.8 | 0.00 | 0.03 | 0.00 | 89 | 1006.2 |
| 20260506005800 | 8 | 148 | 1.6 | 4.8 | 0.00 | 0.03 | 0.00 | 89 | 1006.2 |
| 20260506005700 | 8 | 148 | 1.6 | 4.8 | 0.00 | 0.03 | 0.00 | 89 | 1006.1 |
| 20260506005600 | 8 | 149 | 1.6 | 4.8 | 0.00 | 0.03 | 0.00 | 89 | 1006.1 |
| 20260506005501 | 8 | 148 | 1.6 | 4.8 | 0.00 | 0.03 | 0.00 | 89 | 1006.2 |
| 20260506005401 | 8 | 157 | 0.0 | 3.2 | 0.00 | 0.03 | 0.00 | 89 | 1006.2 |
| 20260506005301 | 8 | 157 | 0.0 | 3.2 | 0.00 | 0.03 | 0.00 | 89 | 1006.2 |
| 20260506005201 | 8 | 157 | 0.0 | 3.2 | 0.00 | 0.03 | 0.00 | 89 | 1006.2 |
| 20260506005100 | 8 | 157 | 0.0 | 3.2 | 0.00 | 0.03 | 0.00 | 89 | 1006.2 |
| 20260506005000 | 8 | 157 | 0.0 | 1.6 | 0.00 | 0.03 | 0.00 | 89 | 1006.2 |
| 20260506004952 | 8 | 157 | 0.0 | 3.2 | 0.00 | 0.03 | 0.00 | 88 | 1006.2 |
| 20260506004944 | 8 | 157 | 0.0 | 1.6 | 0.00 | 0.03 | 0.00 | 89 | 1006.2 |
| 20260506004940 | 8 | 157 | 0.0 | 1.6 | 0.00 | 0.03 | 0.00 | 88 | 1006.2 |
| 20260506004718 | 8 | 162 | 0.0 | 3.2 | 0.00 | 0.03 | 0.00 | 89 | 1006.2 |
| 20260506004712 | 8 | 157 | 0.0 | 3.2 | 0.00 | 0.03 | 0.00 | 88 | 1006.2 |
| 20260506004708 | 8 | 157 | 0.0 | 3.2 | 0.00 | 0.03 | 0.00 | 89 | 1006.2 |
| 20260506004704 | 8 | 157 | 0.0 | 3.2 | 0.00 | 0.03 | 0.00 | 89 | 1006.1 |
| 20260506004443 | 8 | 157 | 0.0 | 3.2 | 0.00 | 0.03 | 0.00 | 89 | 1006.1 |
| 20260506004439 | 8 | 157 | 0.0 | 3.2 | 0.00 | 0.03 | 0.00 | 89 | 1006.1 |
| 20260506004220 | 9 | 163 | 0.0 | 3.2 | 0.00 | 0.03 | 0.00 | 89 | 1006.1 |
| 20260506004213 | 9 | 162 | 0.0 | 3.2 | 0.00 | 0.03 | 0.00 | 89 | 1006.2 |
| 20260506004209 | 8 | 163 | 0.0 | 3.2 | 0.00 | 0.03 | 0.00 | 89 | 1006.1 |
| 20260506004205 | 8 | 162 | 0.0 | 3.2 | 0.00 | 0.03 | 0.00 | 89 | 1006.1 |
| 20260506003946 | 9 | 162 | 0.0 | 3.2 | 0.00 | 0.03 | 0.00 | 89 | 1006.1 |
| 20260506003942 | 9 | 162 | 0.0 | 3.2 | 0.00 | 0.03 | 0.00 | 89 | 1006.1 |
| 20260506003653 | 9 | 163 | 0.0 | 3.2 | 0.00 | 0.03 | 0.00 | 89 | 1006.1 |
| 20260506003553 | 9 | 163 | 0.0 | 3.2 | 0.00 | 0.03 | 0.00 | 88 | 1006.1 |
| 20260506003451 | 9 | 178 | 0.0 | 3.2 | 0.00 | 0.03 | 0.00 | 88 | 1006.1 |
| 20260506003443 | 9 | 178 | 0.0 | 3.2 | 0.00 | 0.03 | 0.00 | 88 | 1006.1 |
| 20260506003439 | 9 | 178 | 0.0 | 3.2 | 0.00 | 0.03 | 0.00 | 88 | 1006.1 |
| 20260506003142 | 9 | 178 | 0.0 | 3.2 | 0.00 | 0.03 | 0.00 | 88 | 1006.2 |
| 20260506003042 | 9 | 178 | 0.0 | 3.2 | 0.00 | 0.03 | 0.00 | 88 | 1006.2 |
| 20260506002941 | 9 | 178 | 1.6 | 3.2 | 0.00 | 0.03 | 0.00 | 88 | 1006.2 |
| 20260506002841 | 9 | 178 | 1.6 | 3.2 | 0.00 | 0.03 | 0.00 | 88 | 1006.2 |
| 20260506002728 | 9 | 178 | 1.6 | 3.2 | 0.00 | 0.03 | 0.00 | 88 | 1006.2 |
| 20260506002636 | 9 | 178 | 1.6 | 3.2 | 0.00 | 0.03 | 0.00 | 87 | 1006.2 |
| 20260506002536 | 9 | 178 | 1.6 | 3.2 | 0.00 | 0.03 | 0.00 | 87 | 1006.2 |
| 20260506002436 | 9 | 178 | 1.6 | 3.2 | 0.00 | 0.03 | 0.00 | 87 | 1006.2 |
| 20260506002336 | 9 | 178 | 1.6 | 3.2 | 0.00 | 0.03 | 0.00 | 88 | 1006.2 |
| 20260506002230 | 9 | 179 | 1.6 | 3.2 | 0.00 | 0.03 | 0.00 | 87 | 1006.2 |
| 20260506002133 | 9 | 179 | 1.6 | 3.2 | 0.00 | 0.03 | 0.00 | 87 | 1006.2 |
| 20260506002032 | 9 | 179 | 0.0 | 3.2 | 0.00 | 0.03 | 0.00 | 87 | 1006.2 |
| 20260506001829 | 10 | 179 | 0.0 | 3.2 | 0.00 | 0.03 | 0.00 | 87 | 1006.3 |
| 20260506001729 | 10 | 179 | 0.0 | 3.2 | 0.00 | 0.03 | 0.00 | 87 | 1006.3 |
| 20260506001629 | 10 | 179 | 0.0 | 3.2 | 0.00 | 0.03 | 0.00 | 87 | 1006.3 |
| 20260506001456 | 10 | 179 | 0.0 | 1.6 | 0.00 | 0.03 | 0.00 | 87 | 1006.4 |
| 20260506001451 | 10 | 179 | 0.0 | 3.2 | 0.00 | 0.03 | 0.00 | 87 | 1006.3 |
| 20260506001442 | 10 | 179 | 0.0 | 3.2 | 0.00 | 0.03 | 0.00 | 87 | 1006.3 |
| 20260506001228 | 10 | 179 | 0.0 | 1.6 | 0.00 | 0.03 | 0.00 | 87 | 1006.4 |
| 20260506001128 | 10 | 178 | 0.0 | 0.0 | 0.00 | 0.03 | 0.00 | 87 | 1006.4 |
| 20260506001027 | 10 | 179 | 0.0 | 0.0 | 0.00 | 0.03 | 0.00 | 87 | 1006.4 |
| 20260506000927 | 10 | 179 | 0.0 | 0.0 | 0.00 | 0.03 | 0.00 | 87 | 1006.4 |
| 20260506000826 | 10 | 178 | 0.0 | 0.0 | 0.00 | 0.03 | 0.00 | 87 | 1006.4 |
| 20260506000724 | 10 | 178 | 0.0 | 0.0 | 0.00 | 0.03 | 0.00 | 87 | 1006.4 |
| 20260506000622 | 10 | 178 | 0.0 | 0.0 | 0.00 | 0.03 | 0.00 | 87 | 1006.5 |
| 20260506000518 | 10 | 178 | 0.0 | 0.0 | 0.00 | 0.03 | 0.00 | 87 | 1006.5 |
| 20260506000417 | 10 | 178 | 0.0 | 0.0 | 0.00 | 0.03 | 0.00 | 87 | 1006.5 |
| 20260506000317 | 10 | 178 | 0.0 | 0.0 | 0.00 | 0.03 | 0.00 | 87 | 1006.7 |
| 20260506000229 | 10 | 178 | 0.0 | 1.6 | 0.00 | 0.03 | 0.00 | 87 | 1006.7 |
| 20260506000219 | 10 | 178 | 0.0 | 3.2 | 0.00 | 0.03 | 0.00 | 87 | 1006.7 |
| 20260506000115 | 10 | 178 | 0.0 | 3.2 | 0.00 | 0.03 | 0.00 | 87 | 1006.7 |
| 20260506000016 | 10 | 178 | 0.0 | 3.2 | 0.00 | 0.03 | 0.00 | 87 | 1006.7 |
| 20260505235914 | 10 | 178 | 0.0 | 3.2 | 0.00 | 0.03 | 0.00 | 87 | 1006.5 |
| 20260505235814 | 10 | 178 | 0.0 | 3.2 | 0.00 | 0.03 | 0.00 | 87 | 1006.7 |
| 20260505235712 | 10 | 178 | 0.0 | 3.2 | 0.00 | 0.03 | 0.00 | 87 | 1006.5 |
| 20260505235610 | 10 | 178 | 0.0 | 3.2 | 0.00 | 0.03 | 0.00 | 87 | 1006.5 |
| 20260505235506 | 10 | 178 | 0.0 | 3.2 | 0.00 | 0.03 | 0.00 | 87 | 1006.5 |
| 20260505235405 | 10 | 178 | 0.0 | 3.2 | 0.00 | 0.03 | 0.00 | 87 | 1006.7 |
| 20260505235305 | 10 | 178 | 0.0 | 3.2 | 0.00 | 0.03 | 0.00 | 87 | 1006.5 |
| 20260505235204 | 10 | 178 | 0.0 | 3.2 | 0.00 | 0.03 | 0.00 | 87 | 1006.7 |
| 20260505235103 | 10 | 178 | 0.0 | 3.2 | 0.00 | 0.03 | 0.00 | 87 | 1006.7 |
| 20260505235002 | 10 | 178 | 0.0 | 1.6 | 0.00 | 0.03 | 0.00 | 87 | 1006.7 |
| 20260505234951 | 10 | 178 | 0.0 | 1.6 | 0.00 | 0.03 | 0.00 | 86 | 1006.7 |
| 20260505234901 | 10 | 178 | 0.0 | 1.6 | 0.00 | 0.03 | 0.00 | 87 | 1006.5 |
| 20260505234802 | 10 | 178 | 0.0 | 1.6 | 0.00 | 0.03 | 0.00 | 87 | 1006.5 |
| 20260505234702 | 10 | 178 | 0.0 | 1.6 | 0.00 | 0.03 | 0.00 | 86 | 1006.7 |
| 20260505234602 | 10 | 178 | 0.0 | 1.6 | 0.00 | 0.03 | 0.00 | 86 | 1006.5 |
| 20260505234501 | 10 | 178 | 0.0 | 1.6 | 0.00 | 0.03 | 0.00 | 86 | 1006.7 |
| 20260505234401 | 10 | 178 | 0.0 | 1.6 | 0.00 | 0.03 | 0.00 | 86 | 1006.7 |
| 20260505234301 | 10 | 178 | 0.0 | 1.6 | 0.00 | 0.03 | 0.00 | 86 | 1006.7 |
| 20260505234201 | 10 | 178 | 0.0 | 1.6 | 0.00 | 0.03 | 0.00 | 86 | 1006.7 |
| 20260505234101 | 10 | 178 | 0.0 | 1.6 | 0.00 | 0.03 | 0.00 | 86 | 1006.7 |
| 20260505234001 | 10 | 178 | 0.0 | 1.6 | 0.00 | 0.03 | 0.00 | 86 | 1006.7 |
| 20260505233901 | 10 | 178 | 0.0 | 1.6 | 0.00 | 0.03 | 0.00 | 86 | 1006.7 |
| 20260505233801 | 10 | 178 | 0.0 | 4.8 | 0.00 | 0.03 | 0.00 | 86 | 1006.7 |
| 20260505233701 | 10 | 178 | 0.0 | 4.8 | 0.00 | 0.03 | 0.00 | 86 | 1006.7 |
| 20260505233601 | 10 | 178 | 1.6 | 4.8 | 0.00 | 0.03 | 0.00 | 86 | 1006.7 |
| 20260505233500 | 10 | 178 | 1.6 | 4.8 | 0.00 | 0.03 | 0.00 | 86 | 1006.8 |
| 20260505233401 | 10 | 178 | 1.6 | 4.8 | 0.00 | 0.03 | 0.00 | 86 | 1006.7 |
| 20260505233300 | 10 | 178 | 1.6 | 4.8 | 0.00 | 0.03 | 0.00 | 86 | 1006.8 |
| 20260505233229 | 10 | 179 | 1.6 | 4.8 | 0.00 | 0.03 | 0.00 | 86 | 1006.7 |
| 20260505233159 | 10 | 179 | 1.6 | 4.8 | 0.00 | 0.03 | 0.00 | 86 | 1006.7 |
| 20260505233059 | 10 | 179 | 1.6 | 4.8 | 0.00 | 0.03 | 0.00 | 87 | 1006.8 |
| 20260505232958 | 10 | 179 | 1.6 | 4.8 | 0.00 | 0.03 | 0.00 | 87 | 1006.8 |
| 20260505232857 | 10 | 179 | 1.6 | 4.8 | 0.00 | 0.03 | 0.00 | 87 | 1006.8 |
| 20260505232729 | 10 | 179 | 1.6 | 4.8 | 0.00 | 0.03 | 0.00 | 87 | 1006.8 |
| 20260505232656 | 10 | 179 | 1.6 | 4.8 | 0.00 | 0.03 | 0.00 | 87 | 1006.8 |
| 20260505232554 | 10 | 179 | 1.6 | 4.8 | 0.00 | 0.03 | 0.00 | 87 | 1006.8 |
| 20260505232454 | 10 | 179 | 1.6 | 4.8 | 0.00 | 0.03 | 0.00 | 87 | 1006.7 |
| 20260505232354 | 10 | 179 | 1.6 | 4.8 | 0.00 | 0.03 | 0.00 | 87 | 1006.7 |
| 20260505232254 | 10 | 179 | 1.6 | 4.8 | 0.00 | 0.03 | 0.00 | 87 | 1006.8 |
| 20260505232228 | 10 | 179 | 1.6 | 4.8 | 0.00 | 0.03 | 0.00 | 87 | 1006.7 |
| 20260505232219 | 10 | 140 | 0.0 | 4.8 | 0.00 | 0.03 | 0.00 | 87 | 1006.8 |
| 20260505232215 | 10 | 179 | 1.6 | 4.8 | 0.00 | 0.03 | 0.00 | 87 | 1006.8 |
| 20260505232211 | 10 | 179 | 1.6 | 4.8 | 0.00 | 0.03 | 0.00 | 87 | 1006.8 |
| 20260505231954 | 10 | 179 | 1.6 | 4.8 | 0.00 | 0.03 | 0.00 | 87 | 1006.8 |
| 20260505231950 | 10 | 179 | 0.0 | 4.8 | 0.00 | 0.03 | 0.00 | 87 | 1006.7 |
| 20260505231941 | 10 | 146 | 0.0 | 4.8 | 0.00 | 0.03 | 0.00 | 87 | 1006.8 |
| 20260505231654 | 10 | 140 | 0.0 | 3.2 | 0.00 | 0.03 | 0.00 | 87 | 1006.8 |
| 20260505231553 | 10 | 140 | 0.0 | 3.2 | 0.00 | 0.03 | 0.00 | 87 | 1006.7 |
| 20260505231450 | 10 | 140 | 0.0 | 3.2 | 0.00 | 0.03 | 0.00 | 87 | 1006.7 |
| 20260505231351 | 10 | 140 | 0.0 | 3.2 | 0.00 | 0.03 | 0.00 | 87 | 1006.7 |
| 20260505231229 | 10 | 139 | 0.0 | 3.2 | 0.00 | 0.03 | 0.00 | 87 | 1006.8 |
| 20260505231146 | 10 | 139 | 0.0 | 3.2 | 0.00 | 0.03 | 0.00 | 87 | 1006.8 |
| 20260505231044 | 10 | 139 | 0.0 | 3.2 | 0.00 | 0.03 | 0.00 | 87 | 1006.7 |
| 20260505230953 | 10 | 139 | 0.0 | 3.2 | 0.00 | 0.03 | 0.00 | 87 | 1006.7 |
| 20260505230949 | 10 | 135 | 0.0 | 3.2 | 0.00 | 0.03 | 0.00 | 87 | 1006.7 |
| 20260505230941 | 10 | 135 | 0.0 | 3.2 | 0.00 | 0.03 | 0.00 | 87 | 1006.7 |
| 20260505230640 | 10 | 135 | 0.0 | 3.2 | 0.00 | 0.03 | 0.00 | 87 | 1006.8 |
| 20260505230540 | 10 | 135 | 0.0 | 3.2 | 0.00 | 0.03 | 0.00 | 87 | 1006.8 |
| 20260505230452 | 10 | 135 | 0.0 | 3.2 | 0.00 | 0.03 | 0.00 | 87 | 1006.7 |
| 20260505230448 | 10 | 135 | 0.0 | 3.2 | 0.00 | 0.03 | 0.00 | 87 | 1006.8 |
| 20260505230440 | 10 | 135 | 0.0 | 3.2 | 0.00 | 0.03 | 0.00 | 87 | 1006.7 |
| 20260505230138 | 10 | 135 | 0.0 | 3.2 | 0.00 | 0.03 | 0.00 | 87 | 1006.8 |
| 20260505230038 | 10 | 135 | 0.0 | 3.2 | 0.00 | 0.03 | 0.00 | 87 | 1006.8 |
| 20260505225936 | 10 | 135 | 0.0 | 3.2 | 0.00 | 0.03 | 0.00 | 87 | 1006.8 |
| 20260505225837 | 10 | 135 | 0.0 | 3.2 | 0.00 | 0.03 | 0.00 | 87 | 1006.8 |
| 20260505225729 | 10 | 135 | 0.0 | 1.6 | 0.00 | 0.03 | 0.00 | 87 | 1006.8 |
| 20260505225632 | 10 | 135 | 0.0 | 1.6 | 0.00 | 0.03 | 0.00 | 87 | 1006.7 |
| 20260505225532 | 10 | 135 | 0.0 | 3.2 | 0.00 | 0.03 | 0.00 | 87 | 1006.7 |
| 20260505225452 | 10 | 135 | 0.0 | 3.2 | 0.00 | 0.03 | 0.00 | 87 | 1006.8 |
| 20260505225448 | 10 | 135 | 0.0 | 3.2 | 0.00 | 0.03 | 0.00 | 87 | 1006.8 |
| 20260505225440 | 10 | 135 | 0.0 | 3.2 | 0.00 | 0.03 | 0.00 | 87 | 1006.8 |
| 20260505225129 | 11 | 135 | 0.0 | 3.2 | 0.00 | 0.03 | 0.00 | 87 | 1006.8 |
| 20260505225029 | 11 | 135 | 0.0 | 3.2 | 0.00 | 0.03 | 0.00 | 87 | 1006.8 |
| 20260505224929 | 11 | 135 | 0.0 | 3.2 | 0.00 | 0.03 | 0.00 | 87 | 1006.8 |
| 20260505224829 | 11 | 135 | 0.0 | 3.2 | 0.00 | 0.03 | 0.00 | 87 | 1006.9 |
| 20260505224729 | 11 | 135 | 0.0 | 3.2 | 0.00 | 0.03 | 0.00 | 87 | 1006.9 |
| 20260505224629 | 11 | 135 | 0.0 | 3.2 | 0.00 | 0.03 | 0.00 | 87 | 1006.9 |
| 20260505224530 | 11 | 135 | 0.0 | 3.2 | 0.00 | 0.03 | 0.00 | 87 | 1006.9 |
| 20260505224452 | 11 | 135 | 0.0 | 3.2 | 0.00 | 0.03 | 0.00 | 87 | 1006.9 |
| 20260505224448 | 11 | 135 | 0.0 | 3.2 | 0.00 | 0.03 | 0.00 | 87 | 1006.9 |
| 20260505224440 | 11 | 135 | 0.0 | 3.2 | 0.00 | 0.03 | 0.00 | 87 | 1007.0 |
| 20260505224129 | 11 | 135 | 0.0 | 3.2 | 0.00 | 0.03 | 0.00 | 87 | 1007.0 |
| 20260505224029 | 11 | 135 | 0.0 | 3.2 | 0.00 | 0.03 | 0.00 | 87 | 1007.0 |
| 20260505223929 | 11 | 135 | 0.0 | 3.2 | 0.00 | 0.03 | 0.00 | 87 | 1007.0 |
| 20260505223829 | 11 | 135 | 0.0 | 1.6 | 0.00 | 0.03 | 0.00 | 87 | 1007.0 |
| 20260505223726 | 11 | 135 | 0.0 | 1.6 | 0.00 | 0.03 | 0.00 | 87 | 1007.1 |
| 20260505223629 | 11 | 135 | 0.0 | 1.6 | 0.00 | 0.03 | 0.00 | 87 | 1007.1 |
| 20260505223528 | 11 | 135 | 0.0 | 1.6 | 0.00 | 0.03 | 0.00 | 87 | 1007.0 |
| 20260505223428 | 11 | 135 | 0.0 | 1.6 | 0.00 | 0.03 | 0.00 | 87 | 1007.0 |
| 20260505223329 | 11 | 135 | 0.0 | 1.6 | 0.00 | 0.03 | 0.00 | 86 | 1007.0 |
| 20260505223226 | 11 | 135 | 0.0 | 0.0 | 0.00 | 0.03 | 0.00 | 86 | 1007.0 |
| 20260505223129 | 11 | 135 | 0.0 | 3.2 | 0.00 | 0.03 | 0.00 | 86 | 1007.0 |
| 20260505223029 | 11 | 135 | 0.0 | 3.2 | 0.00 | 0.03 | 0.00 | 86 | 1007.1 |
| 20260505222929 | 11 | 135 | 0.0 | 3.2 | 0.00 | 0.03 | 0.00 | 86 | 1007.0 |
| 20260505222829 | 11 | 135 | 0.0 | 3.2 | 0.00 | 0.03 | 0.00 | 86 | 1007.1 |
| 20260505222726 | 11 | 135 | 1.6 | 3.2 | 0.00 | 0.03 | 0.00 | 86 | 1007.1 |
| 20260505222628 | 11 | 135 | 1.6 | 4.8 | 0.00 | 0.03 | 0.00 | 86 | 1007.0 |
| 20260505222528 | 11 | 135 | 1.6 | 4.8 | 0.00 | 0.03 | 0.00 | 86 | 1007.0 |
| 20260505222428 | 11 | 135 | 1.6 | 4.8 | 0.00 | 0.03 | 0.00 | 86 | 1007.1 |
| 20260505222328 | 11 | 135 | 1.6 | 4.8 | 0.00 | 0.03 | 0.00 | 86 | 1007.0 |
| 20260505222226 | 11 | 135 | 1.6 | 4.8 | 0.00 | 0.03 | 0.00 | 86 | 1007.0 |
| 20260505222128 | 11 | 135 | 1.6 | 4.8 | 0.00 | 0.03 | 0.00 | 86 | 1007.0 |
| 20260505222026 | 11 | 135 | 1.6 | 4.8 | 0.00 | 0.03 | 0.00 | 86 | 1007.0 |
| 20260505221926 | 11 | 135 | 1.6 | 4.8 | 0.00 | 0.03 | 0.00 | 86 | 1007.0 |
| 20260505221826 | 11 | 135 | 1.6 | 4.8 | 0.00 | 0.03 | 0.00 | 86 | 1006.9 |
| 20260505221726 | 11 | 135 | 1.6 | 4.8 | 0.00 | 0.03 | 0.00 | 86 | 1006.9 |
| 20260505221626 | 11 | 136 | 1.6 | 4.8 | 0.00 | 0.03 | 0.00 | 86 | 1006.9 |
| 20260505221526 | 11 | 136 | 1.6 | 4.8 | 0.00 | 0.03 | 0.00 | 86 | 1006.9 |
| 20260505221426 | 11 | 136 | 1.6 | 4.8 | 0.00 | 0.03 | 0.00 | 86 | 1006.9 |
| 20260505221326 | 11 | 136 | 1.6 | 4.8 | 0.00 | 0.03 | 0.00 | 86 | 1006.8 |
| 20260505221226 | 11 | 136 | 1.6 | 4.8 | 0.00 | 0.03 | 0.00 | 86 | 1006.9 |
| 20260505221124 | 11 | 140 | 1.6 | 4.8 | 0.00 | 0.03 | 0.00 | 86 | 1006.9 |
| 20260505221024 | 11 | 140 | 1.6 | 6.4 | 0.00 | 0.03 | 0.00 | 86 | 1006.8 |
| 20260505220924 | 11 | 140 | 1.6 | 6.4 | 0.00 | 0.03 | 0.00 | 86 | 1006.9 |
| 20260505220822 | 11 | 140 | 3.2 | 8.0 | 0.00 | 0.03 | 0.00 | 86 | 1006.8 |
| 20260505220719 | 11 | 140 | 3.2 | 8.0 | 0.00 | 0.03 | 0.00 | 86 | 1006.9 |
| 20260505220616 | 11 | 140 | 3.2 | 8.0 | 0.00 | 0.03 | 0.00 | 86 | 1006.8 |
| 20260505220516 | 11 | 140 | 3.2 | 8.0 | 0.00 | 0.03 | 0.00 | 86 | 1006.9 |
| 20260505220416 | 11 | 140 | 3.2 | 8.0 | 0.00 | 0.03 | 0.00 | 86 | 1006.8 |
| 20260505220316 | 11 | 140 | 3.2 | 8.0 | 0.00 | 0.03 | 0.00 | 86 | 1006.7 |
| 20260505220214 | 11 | 140 | 3.2 | 8.0 | 0.00 | 0.03 | 0.00 | 86 | 1006.7 |
| 20260505220109 | 11 | 140 | 3.2 | 8.0 | 0.00 | 0.03 | 0.00 | 86 | 1006.8 |
| 20260505220009 | 11 | 138 | 3.2 | 8.0 | 0.00 | 0.03 | 0.00 | 85 | 1006.8 |
| 20260505215809 | 11 | 123 | 3.2 | 8.0 | 0.00 | 0.03 | 0.03 | 85 | 1006.8 |
| 20260505215709 | 11 | 138 | 3.2 | 8.0 | 0.00 | 0.03 | 0.03 | 85 | 1006.8 |
| 20260505215701 | 11 | 108 | 4.8 | 12.9 | 0.00 | 0.03 | 0.03 | 85 | 1006.8 |
| 20260505215645 | 11 | 111 | 3.2 | 9.7 | 0.00 | 0.03 | 0.03 | 85 | 1006.7 |
| 20260505215640 | 11 | 111 | 3.2 | 11.3 | 0.00 | 0.03 | 0.03 | 85 | 1006.8 |
| 20260505215425 | 11 | 111 | 3.2 | 12.9 | 0.00 | 0.03 | 0.03 | 85 | 1006.8 |
| 20260505215421 | 11 | 110 | 4.8 | 12.9 | 0.00 | 0.03 | 0.03 | 85 | 1006.8 |
| 20260505215413 | 11 | 108 | 4.8 | 12.9 | 0.00 | 0.03 | 0.03 | 85 | 1006.8 |
| 20260505215102 | 11 | 108 | 4.8 | 12.9 | 0.00 | 0.03 | 0.03 | 85 | 1006.8 |
| 20260505215001 | 11 | 171 | 4.8 | 12.9 | 0.00 | 0.03 | 0.03 | 85 | 1006.8 |
| 20260505214924 | 11 | 194 | 4.8 | 12.9 | 0.00 | 0.03 | 0.03 | 85 | 1006.9 |
| 20260505214920 | 11 | 208 | 6.4 | 12.9 | 0.00 | 0.03 | 0.03 | 85 | 1006.9 |
| 20260505214912 | 11 | 208 | 4.8 | 12.9 | 0.00 | 0.03 | 0.03 | 85 | 1006.8 |
| 20260505214601 | 11 | 202 | 4.8 | 12.9 | 0.00 | 0.03 | 0.03 | 85 | 1006.9 |
| 20260505214501 | 11 | 206 | 4.8 | 12.9 | 0.00 | 0.03 | 0.03 | 85 | 1006.8 |
| 20260505214401 | 11 | 209 | 4.8 | 11.3 | 0.00 | 0.03 | 0.03 | 85 | 1006.9 |
| 20260505214301 | 11 | 199 | 3.2 | 11.3 | 0.00 | 0.03 | 0.03 | 85 | 1006.8 |
| 20260505214201 | 11 | 206 | 3.2 | 11.3 | 0.00 | 0.03 | 0.03 | 85 | 1006.8 |
| 20260505214101 | 11 | 196 | 3.2 | 11.3 | 0.00 | 0.03 | 0.03 | 85 | 1006.8 |
| 20260505214001 | 11 | 199 | 4.8 | 11.3 | 0.00 | 0.03 | 0.03 | 85 | 1006.8 |
| 20260505213901 | 11 | 198 | 4.8 | 12.9 | 0.00 | 0.03 | 0.03 | 85 | 1006.8 |
| 20260505213801 | 11 | 234 | 4.8 | 12.9 | 0.00 | 0.03 | 0.03 | 85 | 1006.8 |
| 20260505213701 | 11 | 234 | 4.8 | 12.9 | 0.00 | 0.03 | 0.03 | 85 | 1006.8 |
| 20260505213601 | 11 | 212 | 4.8 | 12.9 | 0.00 | 0.03 | 0.03 | 85 | 1006.8 |
| 20260505213501 | 11 | 211 | 4.8 | 12.9 | 0.00 | 0.03 | 0.03 | 85 | 1006.8 |
| 20260505213357 | 11 | 223 | 4.8 | 12.9 | 0.00 | 0.03 | 0.03 | 85 | 1006.8 |
| 20260505213257 | 11 | 227 | 4.8 | 12.9 | 0.00 | 0.03 | 0.03 | 85 | 1006.8 |
| 20260505213201 | 11 | 221 | 6.4 | 12.9 | 0.00 | 0.03 | 0.03 | 85 | 1006.8 |
| 20260505213157 | 11 | 221 | 6.4 | 12.9 | 0.00 | 0.03 | 0.03 | 85 | 1006.8 |
| 20260505213057 | 11 | 240 | 6.4 | 12.9 | 0.00 | 0.03 | 0.03 | 85 | 1006.8 |
| 20260505212957 | 11 | 271 | 4.8 | 12.9 | 0.00 | 0.03 | 0.03 | 85 | 1006.8 |
| 20260505212928 | 11 | 282 | 4.8 | 12.9 | 0.00 | 0.03 | 0.03 | 85 | 1006.8 |
| 20260505212920 | 11 | 269 | 4.8 | 12.9 | 0.00 | 0.03 | 0.03 | 85 | 1006.8 |
| 20260505212916 | 11 | 239 | 4.8 | 12.9 | 0.00 | 0.03 | 0.03 | 85 | 1006.8 |
| 20260505212651 | 11 | 282 | 4.8 | 12.9 | 0.00 | 0.03 | 0.03 | 85 | 1006.8 |
| 20260505212551 | 11 | 269 | 4.8 | 12.9 | 0.00 | 0.03 | 0.03 | 85 | 1006.8 |
| 20260505212451 | 11 | 238 | 4.8 | 9.7 | 0.00 | 0.03 | 0.03 | 85 | 1006.8 |
| 20260505212344 | 11 | 262 | 4.8 | 9.7 | 0.00 | 0.03 | 0.03 | 85 | 1006.8 |
| 20260505212245 | 11 | 275 | 4.8 | 11.3 | 0.00 | 0.03 | 0.03 | 85 | 1006.7 |
| 20260505212200 | 11 | 250 | 4.8 | 11.3 | 0.00 | 0.03 | 0.03 | 85 | 1006.7 |
| 20260505212145 | 11 | 250 | 4.8 | 11.3 | 0.00 | 0.03 | 0.03 | 85 | 1006.7 |
| 20260505212045 | 11 | 238 | 4.8 | 11.3 | 0.00 | 0.03 | 0.03 | 85 | 1006.7 |
| 20260505211945 | 11 | 254 | 4.8 | 11.3 | 0.00 | 0.03 | 0.03 | 85 | 1006.7 |
| 20260505211839 | 11 | 277 | 4.8 | 11.3 | 0.00 | 0.03 | 0.03 | 85 | 1006.5 |
| 20260505211743 | 11 | 279 | 4.8 | 12.9 | 0.00 | 0.03 | 0.03 | 84 | 1006.5 |
| 20260505211701 | 11 | 250 | 4.8 | 12.9 | 0.00 | 0.03 | 0.03 | 84 | 1006.5 |
| 20260505211640 | 11 | 250 | 4.8 | 12.9 | 0.00 | 0.03 | 0.03 | 85 | 1006.5 |
| 20260505211539 | 11 | 251 | 4.8 | 12.9 | 0.00 | 0.03 | 0.03 | 85 | 1006.5 |
| 20260505211438 | 11 | 313 | 6.4 | 12.9 | 0.00 | 0.03 | 0.03 | 84 | 1006.5 |
| 20260505211337 | 11 | 246 | 6.4 | 12.9 | 0.00 | 0.03 | 0.03 | 84 | 1006.5 |
| 20260505211241 | 11 | 281 | 6.4 | 12.9 | 0.00 | 0.03 | 0.03 | 84 | 1006.4 |
| 20260505211200 | 11 | 281 | 6.4 | 12.9 | 0.00 | 0.03 | 0.03 | 84 | 1006.4 |
| 20260505211137 | 11 | 263 | 6.4 | 12.9 | 0.00 | 0.03 | 0.03 | 84 | 1006.4 |
| 20260505211037 | 11 | 264 | 4.8 | 12.9 | 0.00 | 0.03 | 0.03 | 84 | 1006.4 |
| 20260505210937 | 11 | 268 | 4.8 | 12.9 | 0.00 | 0.03 | 0.03 | 84 | 1006.4 |
| 20260505210837 | 11 | 242 | 4.8 | 12.9 | 0.00 | 0.03 | 0.03 | 84 | 1006.5 |
| 20260505210739 | 12 | 255 | 4.8 | 12.9 | 0.00 | 0.03 | 0.03 | 84 | 1006.4 |
| 20260505210701 | 12 | 255 | 4.8 | 12.9 | 0.00 | 0.03 | 0.03 | 84 | 1006.4 |
| 20260505210633 | 12 | 255 | 4.8 | 12.9 | 0.00 | 0.03 | 0.03 | 84 | 1006.5 |
| 20260505210533 | 12 | 251 | 4.8 | 12.9 | 0.00 | 0.03 | 0.03 | 84 | 1006.5 |
| 20260505210433 | 12 | 242 | 4.8 | 12.9 | 0.00 | 0.03 | 0.03 | 84 | 1006.5 |
| 20260505210333 | 12 | 250 | 3.2 | 8.0 | 0.00 | 0.03 | 0.03 | 84 | 1006.4 |
| 20260505210238 | 12 | 304 | 4.8 | 8.0 | 0.00 | 0.03 | 0.03 | 84 | 1006.4 |
| 20260505210201 | 12 | 262 | 4.8 | 11.3 | 0.00 | 0.03 | 0.03 | 84 | 1006.4 |
| 20260505210132 | 12 | 262 | 4.8 | 11.3 | 0.00 | 0.03 | 0.03 | 84 | 1006.5 |
| 20260505210032 | 12 | 252 | 4.8 | 12.9 | 0.00 | 0.03 | 0.03 | 84 | 1006.7 |
| 20260505205932 | 12 | 248 | 4.8 | 12.9 | 0.00 | 0.03 | 0.03 | 83 | 1006.7 |
| 20260505205833 | 12 | 248 | 4.8 | 12.9 | 0.00 | 0.03 | 0.03 | 83 | 1006.7 |
| 20260505205735 | 12 | 218 | 4.8 | 12.9 | 0.00 | 0.03 | 0.03 | 83 | 1006.7 |
| 20260505205700 | 12 | 264 | 4.8 | 12.9 | 0.00 | 0.03 | 0.03 | 83 | 1006.7 |
| 20260505205631 | 12 | 264 | 6.4 | 14.5 | 0.00 | 0.03 | 0.03 | 83 | 1006.7 |
| 20260505205530 | 12 | 226 | 6.4 | 14.5 | 0.00 | 0.03 | 0.03 | 83 | 1006.7 |
| 20260505205431 | 12 | 225 | 6.4 | 16.1 | 0.00 | 0.03 | 0.03 | 83 | 1006.7 |
| 20260505205330 | 12 | 219 | 6.4 | 16.1 | 0.00 | 0.03 | 0.03 | 82 | 1006.7 |
| 20260505205233 | 12 | 259 | 6.4 | 16.1 | 0.00 | 0.03 | 0.03 | 82 | 1006.8 |
| 20260505205201 | 12 | 248 | 6.4 | 16.1 | 0.00 | 0.03 | 0.03 | 82 | 1006.8 |
| 20260505205129 | 12 | 232 | 6.4 | 16.1 | 0.00 | 0.03 | 0.03 | 82 | 1006.8 |
| 20260505205030 | 12 | 219 | 6.4 | 16.1 | 0.00 | 0.03 | 0.03 | 82 | 1006.7 |
| 20260505204929 | 12 | 203 | 6.4 | 16.1 | 0.00 | 0.03 | 0.03 | 82 | 1006.8 |
| 20260505204829 | 12 | 238 | 6.4 | 16.1 | 0.00 | 0.03 | 0.03 | 82 | 1006.8 |
| 20260505204731 | 12 | 215 | 6.4 | 16.1 | 0.00 | 0.03 | 0.03 | 82 | 1006.9 |
| 20260505204701 | 12 | 218 | 6.4 | 16.1 | 0.00 | 0.03 | 0.03 | 82 | 1006.9 |
| 20260505204629 | 12 | 240 | 6.4 | 16.1 | 0.00 | 0.03 | 0.03 | 81 | 1006.9 |
| 20260505204529 | 12 | 250 | 8.0 | 16.1 | 0.00 | 0.03 | 0.03 | 81 | 1006.9 |
| 20260505204429 | 12 | 248 | 8.0 | 16.1 | 0.00 | 0.03 | 0.03 | 81 | 1006.9 |
| 20260505204329 | 12 | 244 | 8.0 | 14.5 | 0.00 | 0.03 | 0.03 | 81 | 1006.9 |
| 20260505204229 | 12 | 243 | 8.0 | 14.5 | 0.00 | 0.03 | 0.03 | 81 | 1006.8 |
| 20260505204201 | 12 | 255 | 8.0 | 20.9 | 0.00 | 0.03 | 0.03 | 81 | 1006.8 |
| 20260505204129 | 12 | 286 | 9.7 | 27.4 | 0.00 | 0.03 | 0.03 | 80 | 1006.9 |
| 20260505204029 | 12 | 249 | 9.7 | 27.4 | 0.00 | 0.03 | 0.03 | 80 | 1007.0 |
| 20260505203929 | 13 | 242 | 9.7 | 27.4 | 0.00 | 0.03 | 0.03 | 80 | 1006.9 |
| 20260505203829 | 13 | 214 | 9.7 | 27.4 | 0.00 | 0.03 | 0.03 | 80 | 1006.9 |
| 20260505203729 | 13 | 237 | 9.7 | 27.4 | 0.00 | 0.03 | 0.03 | 80 | 1006.9 |
| 20260505203701 | 13 | 270 | 9.7 | 27.4 | 0.00 | 0.03 | 0.03 | 79 | 1006.9 |
| 20260505203629 | 13 | 245 | 9.7 | 27.4 | 0.00 | 0.03 | 0.03 | 79 | 1007.0 |
| 20260505203528 | 13 | 273 | 9.7 | 27.4 | 0.00 | 0.03 | 0.03 | 79 | 1007.0 |
| 20260505203428 | 13 | 248 | 11.3 | 27.4 | 0.00 | 0.03 | 0.03 | 79 | 1006.9 |
| 20260505203329 | 13 | 248 | 11.3 | 27.4 | 0.00 | 0.03 | 0.03 | 79 | 1006.9 |
| 20260505203229 | 13 | 227 | 9.7 | 27.4 | 0.00 | 0.03 | 0.03 | 79 | 1007.0 |
| 20260505203200 | 13 | 237 | 9.7 | 27.4 | 0.00 | 0.03 | 0.03 | 79 | 1007.0 |
| 20260505203129 | 13 | 298 | 9.7 | 19.3 | 0.00 | 0.03 | 0.03 | 79 | 1007.0 |
| 20260505203029 | 13 | 257 | 9.7 | 19.3 | 0.00 | 0.03 | 0.03 | 79 | 1006.9 |
| 20260505202929 | 13 | 227 | 9.7 | 19.3 | 0.00 | 0.03 | 0.03 | 79 | 1007.1 |
| 20260505202829 | 13 | 278 | 9.7 | 19.3 | 0.00 | 0.03 | 0.03 | 79 | 1007.0 |
| 20260505202728 | 13 | 250 | 9.7 | 19.3 | 0.00 | 0.03 | 0.03 | 79 | 1007.0 |
| 20260505202700 | 13 | 250 | 9.7 | 19.3 | 0.00 | 0.03 | 0.03 | 80 | 1007.0 |
| 20260505202629 | 13 | 265 | 9.7 | 19.3 | 0.00 | 0.03 | 0.03 | 80 | 1007.0 |
| 20260505202529 | 13 | 269 | 9.7 | 19.3 | 0.00 | 0.03 | 0.03 | 80 | 1007.0 |
| 20260505202432 | 13 | 277 | 9.7 | 19.3 | 0.00 | 0.03 | 0.03 | 80 | 1007.1 |
| 20260505202428 | 13 | 274 | 9.7 | 22.5 | 0.00 | 0.03 | 0.03 | 80 | 1007.1 |
| 20260505202416 | 13 | 249 | 9.7 | 22.5 | 0.00 | 0.03 | 0.03 | 80 | 1007.1 |
| 20260505202129 | 13 | 259 | 9.7 | 22.5 | 0.00 | 0.03 | 0.03 | 80 | 1007.1 |
| 20260505202029 | 13 | 259 | 9.7 | 22.5 | 0.00 | 0.03 | 0.03 | 80 | 1007.1 |
| 20260505201929 | 13 | 244 | 9.7 | 22.5 | 0.00 | 0.03 | 0.03 | 80 | 1007.2 |
| 20260505201830 | 13 | 269 | 9.7 | 22.5 | 0.00 | 0.03 | 0.03 | 81 | 1007.3 |
| 20260505201728 | 13 | 254 | 9.7 | 22.5 | 0.00 | 0.03 | 0.03 | 81 | 1007.2 |
| 20260505201701 | 13 | 250 | 9.7 | 22.5 | 0.00 | 0.03 | 0.03 | 81 | 1007.2 |
| 20260505201629 | 13 | 229 | 9.7 | 22.5 | 0.00 | 0.03 | 0.03 | 81 | 1007.2 |
| 20260505201529 | 13 | 259 | 9.7 | 22.5 | 0.00 | 0.03 | 0.03 | 81 | 1007.2 |
| 20260505201428 | 13 | 269 | 9.7 | 22.5 | 0.00 | 0.03 | 0.03 | 81 | 1007.2 |
| 20260505201328 | 13 | 265 | 9.7 | 22.5 | 0.00 | 0.03 | 0.03 | 81 | 1007.2 |
| 20260505201300 | 13 | 238 | 9.7 | 20.9 | 0.00 | 0.03 | 0.03 | 81 | 1007.3 |
| 20260505201201 | 13 | 239 | 9.7 | 20.9 | 0.00 | 0.03 | 0.03 | 81 | 1007.3 |
| 20260505201128 | 13 | 242 | 9.7 | 20.9 | 0.00 | 0.03 | 0.03 | 81 | 1007.2 |
| 20260505201028 | 13 | 266 | 11.3 | 20.9 | 0.00 | 0.03 | 0.03 | 81 | 1007.2 |
| 20260505200928 | 13 | 278 | 11.3 | 30.6 | 0.00 | 0.03 | 0.03 | 81 | 1007.2 |
| 20260505200830 | 13 | 249 | 12.9 | 30.6 | 0.00 | 0.03 | 0.03 | 81 | 1007.1 |
| 20260505200729 | 13 | 261 | 12.9 | 30.6 | 0.00 | 0.03 | 0.03 | 80 | 1007.2 |
| 20260505200700 | 13 | 272 | 12.9 | 30.6 | 0.00 | 0.03 | 0.03 | 80 | 1007.2 |
| 20260505200629 | 13 | 234 | 12.9 | 30.6 | 0.00 | 0.03 | 0.03 | 80 | 1007.2 |
| 20260505200529 | 13 | 271 | 12.9 | 30.6 | 0.00 | 0.03 | 0.03 | 81 | 1007.1 |
| 20260505200429 | 13 | 237 | 12.9 | 30.6 | 0.00 | 0.03 | 0.03 | 80 | 1007.1 |
| 20260505200329 | 13 | 294 | 12.9 | 30.6 | 0.00 | 0.03 | 0.03 | 80 | 1007.1 |
| 20260505200229 | 13 | 206 | 12.9 | 30.6 | 0.00 | 0.03 | 0.03 | 80 | 1007.0 |
| 20260505200201 | 13 | 244 | 12.9 | 30.6 | 0.00 | 0.03 | 0.03 | 80 | 1007.0 |
| 20260505200129 | 13 | 232 | 12.9 | 30.6 | 0.00 | 0.03 | 0.03 | 80 | 1007.0 |
| 20260505200028 | 13 | 227 | 11.3 | 30.6 | 0.00 | 0.03 | 0.03 | 79 | 1007.1 |
| 20260505195928 | 13 | 289 | 11.3 | 25.7 | 0.00 | 0.03 | 0.03 | 80 | 1007.1 |
| 20260505195828 | 13 | 220 | 11.3 | 25.7 | 0.00 | 0.03 | 0.03 | 81 | 1006.8 |
| 20260505195729 | 13 | 237 | 11.3 | 19.3 | 0.00 | 0.03 | 0.03 | 81 | 1007.0 |
| 20260505195700 | 13 | 250 | 11.3 | 19.3 | 0.00 | 0.03 | 0.03 | 81 | 1007.0 |
| 20260505195629 | 13 | 243 | 11.3 | 19.3 | 0.00 | 0.03 | 0.03 | 81 | 1006.9 |
| 20260505195529 | 13 | 248 | 11.3 | 19.3 | 0.00 | 0.03 | 0.03 | 81 | 1006.9 |
| 20260505195428 | 13 | 242 | 9.7 | 19.3 | 0.00 | 0.03 | 0.03 | 81 | 1006.9 |
| 20260505195328 | 13 | 262 | 11.3 | 19.3 | 0.00 | 0.03 | 0.03 | 81 | 1006.8 |
| 20260505195228 | 13 | 241 | 9.7 | 19.3 | 0.00 | 0.03 | 0.03 | 81 | 1006.8 |
| 20260505195201 | 13 | 267 | 9.7 | 19.3 | 0.00 | 0.03 | 0.03 | 81 | 1006.8 |
| 20260505195129 | 13 | 272 | 9.7 | 19.3 | 0.00 | 0.03 | 0.03 | 81 | 1006.8 |
| 20260505195029 | 13 | 232 | 9.7 | 19.3 | 0.00 | 0.03 | 0.03 | 81 | 1006.7 |
| 20260505194929 | 13 | 236 | 9.7 | 19.3 | 0.00 | 0.03 | 0.03 | 81 | 1006.7 |
| 20260505194829 | 13 | 229 | 9.7 | 19.3 | 0.00 | 0.03 | 0.03 | 81 | 1006.7 |
| 20260505194729 | 13 | 222 | 9.7 | 19.3 | 0.00 | 0.03 | 0.03 | 81 | 1006.5 |
| 20260505194701 | 13 | 209 | 9.7 | 20.9 | 0.00 | 0.03 | 0.03 | 81 | 1006.5 |
| 20260505194629 | 13 | 180 | 9.7 | 22.5 | 0.00 | 0.03 | 0.03 | 81 | 1006.5 |
| 20260505194529 | 13 | 232 | 9.7 | 22.5 | 0.00 | 0.03 | 0.03 | 80 | 1006.7 |
| 20260505194429 | 13 | 240 | 9.7 | 22.5 | 0.00 | 0.03 | 0.03 | 80 | 1006.5 |
| 20260505194329 | 13 | 226 | 9.7 | 22.5 | 0.00 | 0.03 | 0.03 | 80 | 1006.7 |
| 20260505194229 | 13 | 262 | 9.7 | 22.5 | 0.00 | 0.03 | 0.03 | 80 | 1006.5 |
| 20260505194205 | 13 | 250 | 9.7 | 22.5 | 0.00 | 0.03 | 0.03 | 80 | 1006.5 |
| 20260505194129 | 13 | 253 | 9.7 | 22.5 | 0.00 | 0.03 | 0.03 | 80 | 1006.4 |
| 20260505194029 | 13 | 267 | 9.7 | 22.5 | 0.00 | 0.03 | 0.03 | 80 | 1006.4 |
| 20260505193929 | 13 | 211 | 8.0 | 22.5 | 0.00 | 0.03 | 0.03 | 80 | 1006.4 |
| 20260505193828 | 13 | 261 | 8.0 | 22.5 | 0.00 | 0.03 | 0.03 | 81 | 1006.4 |
| 20260505193728 | 13 | 232 | 8.0 | 22.5 | 0.00 | 0.03 | 0.03 | 81 | 1006.4 |
| 20260505193703 | 13 | 205 | 8.0 | 22.5 | 0.00 | 0.03 | 0.03 | 81 | 1006.4 |
| 20260505193629 | 13 | 268 | 8.0 | 16.1 | 0.00 | 0.03 | 0.03 | 80 | 1006.4 |
| 20260505193529 | 13 | 264 | 8.0 | 16.1 | 0.00 | 0.03 | 0.03 | 81 | 1006.3 |
| 20260505193429 | 13 | 244 | 8.0 | 16.1 | 0.00 | 0.03 | 0.03 | 81 | 1006.3 |
| 20260505193329 | 13 | 270 | 8.0 | 16.1 | 0.00 | 0.03 | 0.03 | 81 | 1006.3 |
| 20260505193229 | 13 | 207 | 8.0 | 16.1 | 0.00 | 0.03 | 0.03 | 81 | 1006.3 |
| 20260505193204 | 13 | 221 | 8.0 | 16.1 | 0.00 | 0.03 | 0.03 | 81 | 1006.3 |
| 20260505193128 | 13 | 248 | 8.0 | 16.1 | 0.00 | 0.03 | 0.03 | 81 | 1006.3 |
| 20260505193028 | 13 | 232 | 8.0 | 16.1 | 0.00 | 0.03 | 0.03 | 82 | 1006.2 |
| 20260505192928 | 13 | 252 | 8.0 | 16.1 | 0.00 | 0.03 | 0.03 | 81 | 1006.2 |
| 20260505192924 | 13 | 217 | 6.4 | 16.1 | 0.00 | 0.03 | 0.03 | 82 | 1006.1 |
| 20260505192915 | 13 | 238 | 6.4 | 16.1 | 0.00 | 0.03 | 0.03 | 81 | 1006.2 |
| 20260505192911 | 13 | 245 | 6.4 | 16.1 | 0.00 | 0.03 | 0.03 | 82 | 1006.1 |
| 20260505192629 | 13 | 275 | 6.4 | 16.1 | 0.00 | 0.03 | 0.03 | 82 | 1006.2 |
| 20260505192529 | 13 | 263 | 4.8 | 14.5 | 0.00 | 0.03 | 0.03 | 82 | 1006.1 |
| 20260505192430 | 13 | 236 | 4.8 | 14.5 | 0.00 | 0.03 | 0.03 | 82 | 1006.1 |
| 20260505192330 | 13 | 244 | 4.8 | 12.9 | 0.00 | 0.03 | 0.03 | 82 | 1006.0 |
| 20260505192228 | 13 | 244 | 4.8 | 12.9 | 0.00 | 0.03 | 0.03 | 82 | 1006.0 |
| 20260505192201 | 13 | 269 | 4.8 | 12.9 | 0.00 | 0.03 | 0.03 | 82 | 1006.0 |
| 20260505192149 | 13 | 230 | 1.6 | 6.4 | 0.00 | 0.03 | 0.03 | 82 | 1005.9 |
| 20260505192142 | 13 | 246 | 3.2 | 11.3 | 0.00 | 0.03 | 0.03 | 82 | 1006.0 |
| 20260505192138 | 13 | 253 | 3.2 | 11.3 | 0.00 | 0.03 | 0.03 | 82 | 1006.0 |
| 20260505192134 | 13 | 247 | 3.2 | 8.0 | 0.00 | 0.03 | 0.03 | 82 | 1005.9 |
| 20260505191915 | 13 | 232 | 3.2 | 6.4 | 0.00 | 0.03 | 0.03 | 82 | 1005.9 |
| 20260505191911 | 13 | 231 | 1.6 | 6.4 | 0.00 | 0.03 | 0.03 | 83 | 1005.9 |
| 20260505191629 | 13 | 231 | 1.6 | 6.4 | 0.00 | 0.03 | 0.03 | 82 | 1005.9 |
| 20260505191529 | 13 | 252 | 1.6 | 6.4 | 0.00 | 0.03 | 0.03 | 82 | 1005.8 |
| 20260505191429 | 13 | 252 | 1.6 | 6.4 | 0.00 | 0.03 | 0.03 | 82 | 1005.8 |
| 20260505191329 | 13 | 254 | 1.6 | 4.8 | 0.00 | 0.03 | 0.03 | 82 | 1005.7 |
| 20260505191201 | 13 | 260 | 0.0 | 3.2 | 0.00 | 0.03 | 0.03 | 82 | 1005.7 |
| 20260505191129 | 13 | 260 | 0.0 | 3.2 | 0.00 | 0.03 | 0.03 | 82 | 1005.7 |
| 20260505191028 | 13 | 260 | 0.0 | 3.2 | 0.00 | 0.03 | 0.03 | 81 | 1005.6 |
| 20260505190931 | 13 | 260 | 0.0 | 1.6 | 0.00 | 0.03 | 0.03 | 81 | 1005.5 |
| 20260505190924 | 13 | 260 | 0.0 | 3.2 | 0.00 | 0.03 | 0.03 | 81 | 1005.7 |
| 20260505190917 | 13 | 260 | 0.0 | 1.6 | 0.00 | 0.03 | 0.03 | 81 | 1005.6 |
| 20260505190913 | 13 | 260 | 0.0 | 1.6 | 0.00 | 0.03 | 0.03 | 81 | 1005.6 |
| 20260505190623 | 13 | 260 | 0.0 | 1.6 | 0.00 | 0.03 | 0.03 | 81 | 1005.5 |
| 20260505190521 | 13 | 260 | 0.0 | 1.6 | 0.00 | 0.03 | 0.03 | 81 | 1005.5 |
| 20260505190417 | 13 | 260 | 0.0 | 1.6 | 0.00 | 0.03 | 0.03 | 81 | 1005.5 |
| 20260505190316 | 13 | 260 | 0.0 | 1.6 | 0.00 | 0.03 | 0.03 | 81 | 1005.5 |
| 20260505190201 | 13 | 260 | 0.0 | 1.6 | 0.00 | 0.03 | 0.03 | 81 | 1005.5 |
| 20260505190115 | 13 | 260 | 0.0 | 1.6 | 0.00 | 0.03 | 0.03 | 81 | 1005.5 |
| 20260505190014 | 13 | 260 | 0.0 | 1.6 | 0.00 | 0.03 | 0.03 | 81 | 1005.5 |
| 20260505185921 | 13 | 260 | 0.0 | 1.6 | 0.00 | 0.03 | 0.03 | 81 | 1005.5 |
| 20260505185917 | 13 | 260 | 0.0 | 4.8 | 0.00 | 0.05 | 0.03 | 81 | 1005.5 |
| 20260505185913 | 13 | 260 | 1.6 | 4.8 | 0.00 | 0.05 | 0.03 | 81 | 1005.5 |
| 20260505185609 | 13 | 260 | 1.6 | 4.8 | 0.00 | 0.05 | 0.03 | 81 | 1005.5 |
| 20260505185507 | 13 | 260 | 1.6 | 4.8 | 0.00 | 0.05 | 0.03 | 81 | 1005.5 |
| 20260505185403 | 13 | 260 | 1.6 | 4.8 | 0.00 | 0.05 | 0.03 | 81 | 1005.5 |
| 20260505185305 | 13 | 260 | 3.2 | 6.4 | 0.00 | 0.05 | 0.03 | 80 | 1005.4 |
| 20260505185201 | 13 | 260 | 3.2 | 9.7 | 0.00 | 0.05 | 0.03 | 81 | 1005.5 |
| 20260505185102 | 13 | 260 | 3.2 | 9.7 | 0.00 | 0.05 | 0.03 | 81 | 1005.5 |
| 20260505185003 | 13 | 260 | 3.2 | 9.7 | 0.00 | 0.08 | 0.03 | 81 | 1005.5 |
| 20260505184903 | 13 | 260 | 4.8 | 9.7 | 0.00 | 0.08 | 0.03 | 81 | 1005.5 |
| 20260505184803 | 13 | 260 | 4.8 | 9.7 | 0.00 | 0.10 | 0.03 | 80 | 1005.5 |
| 20260505184701 | 13 | 265 | 4.8 | 9.7 | 0.00 | 0.10 | 0.03 | 80 | 1005.5 |
| 20260505184603 | 13 | 265 | 4.8 | 9.7 | 0.00 | 0.13 | 0.03 | 80 | 1005.6 |
| 20260505184503 | 13 | 264 | 4.8 | 9.7 | 0.00 | 0.15 | 0.03 | 80 | 1005.6 |
| 20260505184403 | 13 | 264 | 4.8 | 9.7 | 0.00 | 0.15 | 0.03 | 80 | 1005.6 |
| 20260505184302 | 13 | 265 | 4.8 | 9.7 | 0.00 | 0.15 | 0.03 | 80 | 1005.6 |
| 20260505184201 | 13 | 264 | 4.8 | 11.3 | 0.00 | 0.15 | 0.03 | 79 | 1005.5 |
| 20260505184102 | 13 | 268 | 4.8 | 11.3 | 0.00 | 0.15 | 0.03 | 79 | 1005.5 |
| 20260505184002 | 13 | 268 | 4.8 | 11.3 | 0.00 | 0.15 | 0.03 | 79 | 1005.5 |
| 20260505183903 | 13 | 267 | 4.8 | 11.3 | 0.00 | 0.15 | 0.03 | 79 | 1005.5 |
| 20260505183803 | 13 | 261 | 4.8 | 11.3 | 0.00 | 0.15 | 0.03 | 79 | 1005.5 |
| 20260505183701 | 13 | 261 | 4.8 | 11.3 | 0.00 | 0.15 | 0.03 | 79 | 1005.5 |
| 20260505183603 | 13 | 249 | 4.8 | 11.3 | 0.00 | 0.15 | 0.03 | 79 | 1005.4 |
| 20260505183503 | 13 | 247 | 4.8 | 11.3 | 0.00 | 0.15 | 0.03 | 79 | 1005.5 |
| 20260505183403 | 13 | 248 | 4.8 | 11.3 | 0.00 | 0.15 | 0.03 | 79 | 1005.5 |
| 20260505183303 | 13 | 245 | 4.8 | 11.3 | 0.00 | 0.15 | 0.03 | 79 | 1005.5 |
| 20260505183205 | 13 | 256 | 4.8 | 9.7 | 0.00 | 0.15 | 0.03 | 79 | 1005.5 |
| 20260505183200 | 13 | 257 | 4.8 | 9.7 | 0.00 | 0.15 | 0.03 | 79 | 1005.5 |
| 20260505183103 | 13 | 246 | 4.8 | 9.7 | 0.00 | 0.15 | 0.03 | 79 | 1005.4 |
| 20260505183003 | 13 | 250 | 4.8 | 9.7 | 0.00 | 0.15 | 0.03 | 78 | 1005.4 |
| 20260505182903 | 13 | 250 | 4.8 | 9.7 | 0.00 | 0.15 | 0.03 | 78 | 1005.3 |
| 20260505182803 | 13 | 244 | 4.8 | 9.7 | 0.00 | 0.15 | 0.03 | 78 | 1005.3 |
| 20260505182700 | 13 | 259 | 4.8 | 9.7 | 0.00 | 0.15 | 0.03 | 78 | 1005.3 |
| 20260505182601 | 13 | 259 | 4.8 | 9.7 | 0.00 | 0.15 | 0.03 | 78 | 1005.3 |
| 20260505182500 | 13 | 259 | 4.8 | 9.7 | 0.00 | 0.15 | 0.03 | 78 | 1005.3 |
| 20260505182400 | 13 | 257 | 4.8 | 9.7 | 0.00 | 0.15 | 0.03 | 78 | 1005.3 |
| 20260505182300 | 13 | 257 | 4.8 | 9.7 | 0.00 | 0.15 | 0.03 | 78 | 1005.3 |
| 20260505182201 | 13 | 255 | 4.8 | 9.7 | 0.00 | 0.15 | 0.03 | 78 | 1005.3 |
| 20260505182100 | 13 | 257 | 4.8 | 9.7 | 0.00 | 0.15 | 0.03 | 78 | 1005.2 |
| 20260505182000 | 14 | 260 | 4.8 | 9.7 | 0.00 | 0.15 | 0.03 | 78 | 1005.2 |
| 20260505181900 | 14 | 261 | 4.8 | 9.7 | 0.00 | 0.15 | 0.03 | 78 | 1005.2 |
| 20260505181800 | 14 | 256 | 4.8 | 9.7 | 0.00 | 0.15 | 0.03 | 78 | 1005.2 |
| 20260505181700 | 14 | 257 | 3.2 | 6.4 | 0.00 | 0.15 | 0.03 | 79 | 1005.2 |
| 20260505181601 | 14 | 256 | 3.2 | 6.4 | 0.00 | 0.15 | 0.03 | 79 | 1005.2 |
| 20260505181501 | 14 | 257 | 3.2 | 6.4 | 0.00 | 0.15 | 0.03 | 79 | 1005.1 |
| 20260505181401 | 14 | 254 | 3.2 | 6.4 | 0.00 | 0.15 | 0.03 | 79 | 1005.2 |
| 20260505181301 | 14 | 252 | 3.2 | 6.4 | 0.00 | 0.15 | 0.03 | 79 | 1005.1 |
| 20260505181200 | 14 | 251 | 3.2 | 6.4 | 0.00 | 0.15 | 0.03 | 79 | 1005.2 |
| 20260505181100 | 14 | 252 | 3.2 | 6.4 | 0.00 | 0.15 | 0.03 | 79 | 1005.1 |
| 20260505181001 | 14 | 252 | 4.8 | 6.4 | 0.00 | 0.15 | 0.03 | 79 | 1005.1 |
| 20260505180901 | 14 | 252 | 4.8 | 6.4 | 0.00 | 0.15 | 0.03 | 79 | 1005.1 |
| 20260505180801 | 14 | 252 | 4.8 | 6.4 | 0.00 | 0.15 | 0.03 | 79 | 1005.1 |
| 20260505180700 | 14 | 251 | 4.8 | 6.4 | 0.00 | 0.15 | 0.03 | 79 | 1005.1 |
| 20260505180600 | 14 | 251 | 4.8 | 6.4 | 0.00 | 0.15 | 0.03 | 79 | 1005.1 |
| 20260505180500 | 14 | 255 | 3.2 | 6.4 | 0.00 | 0.15 | 0.03 | 79 | 1005.0 |
| 20260505180400 | 14 | 255 | 3.2 | 6.4 | 0.03 | 0.15 | 0.03 | 79 | 1005.0 |
| 20260505180302 | 14 | 254 | 3.2 | 6.4 | 0.03 | 0.15 | 0.03 | 79 | 1005.0 |
| 20260505180201 | 14 | 254 | 3.2 | 6.4 | 0.03 | 0.15 | 0.03 | 79 | 1005.0 |
| 20260505180100 | 14 | 252 | 3.2 | 6.4 | 0.03 | 0.15 | 0.03 | 79 | 1005.0 |
| 20260505180001 | 14 | 252 | 3.2 | 4.8 | 0.03 | 0.15 | 0.03 | 79 | 1004.9 |
| 20260505175901 | 14 | 252 | 3.2 | 4.8 | 0.03 | 0.15 | 0.03 | 79 | 1004.9 |
| 20260505175801 | 14 | 238 | 3.2 | 4.8 | 0.03 | 0.15 | 0.03 | 78 | 1004.9 |
| 20260505175700 | 14 | 236 | 3.2 | 4.8 | 0.03 | 0.15 | 0.03 | 79 | 1004.9 |
| 20260505175600 | 14 | 236 | 3.2 | 4.8 | 0.03 | 0.15 | 0.03 | 79 | 1004.9 |
| 20260505175500 | 14 | 236 | 3.2 | 4.8 | 0.03 | 0.15 | 0.03 | 79 | 1004.9 |
| 20260505175400 | 14 | 236 | 3.2 | 6.4 | 0.03 | 0.15 | 0.03 | 79 | 1004.7 |
| 20260505175300 | 14 | 236 | 3.2 | 6.4 | 0.03 | 0.15 | 0.03 | 79 | 1004.7 |
| 20260505175201 | 14 | 236 | 3.2 | 6.4 | 0.03 | 0.15 | 0.03 | 79 | 1004.7 |
| 20260505175105 | 14 | 236 | 3.2 | 6.4 | 0.03 | 0.15 | 0.03 | 79 | 1004.7 |
| 20260505175001 | 14 | 236 | 3.2 | 6.4 | 0.03 | 0.15 | 0.03 | 79 | 1004.7 |
| 20260505174901 | 14 | 236 | 3.2 | 6.4 | 0.03 | 0.15 | 0.03 | 79 | 1004.7 |
| 20260505174800 | 14 | 236 | 3.2 | 6.4 | 0.03 | 0.15 | 0.03 | 79 | 1004.7 |
| 20260505174700 | 14 | 236 | 3.2 | 6.4 | 0.03 | 0.15 | 0.03 | 79 | 1004.7 |
| 20260505174601 | 14 | 236 | 3.2 | 6.4 | 0.03 | 0.15 | 0.03 | 79 | 1004.7 |
| 20260505174502 | 15 | 236 | 3.2 | 6.4 | 0.03 | 0.15 | 0.03 | 79 | 1004.9 |
| 20260505174401 | 15 | 236 | 3.2 | 6.4 | 0.03 | 0.15 | 0.03 | 79 | 1004.7 |
| 20260505174300 | 15 | 236 | 3.2 | 6.4 | 0.03 | 0.15 | 0.03 | 79 | 1004.7 |
| 20260505174200 | 15 | 269 | 3.2 | 6.4 | 0.03 | 0.15 | 0.03 | 80 | 1004.7 |
| 20260505174100 | 15 | 233 | 3.2 | 8.0 | 0.03 | 0.15 | 0.03 | 79 | 1004.6 |
| 20260505174000 | 15 | 257 | 3.2 | 8.0 | 0.03 | 0.15 | 0.03 | 80 | 1004.6 |
| 20260505173920 | 15 | 259 | 3.2 | 8.0 | 0.03 | 0.15 | 0.03 | 80 | 1004.6 |
| 20260505173916 | 15 | 259 | 3.2 | 8.0 | 0.03 | 0.15 | 0.03 | 80 | 1004.5 |
| 20260505173912 | 15 | 259 | 3.2 | 8.0 | 0.03 | 0.15 | 0.03 | 79 | 1004.5 |
| 20260505173600 | 15 | 259 | 3.2 | 8.0 | 0.03 | 0.15 | 0.03 | 79 | 1004.5 |
| 20260505173501 | 15 | 259 | 3.2 | 8.0 | 0.03 | 0.15 | 0.03 | 79 | 1004.5 |
| 20260505173400 | 15 | 254 | 3.2 | 8.0 | 0.03 | 0.15 | 0.03 | 78 | 1004.5 |
| 20260505173300 | 15 | 252 | 3.2 | 8.0 | 0.03 | 0.15 | 0.03 | 78 | 1004.5 |
| 20260505173200 | 15 | 250 | 3.2 | 8.0 | 0.03 | 0.15 | 0.03 | 77 | 1004.5 |
| 20260505173100 | 15 | 271 | 3.2 | 6.4 | 0.03 | 0.15 | 0.03 | 77 | 1004.4 |
| 20260505173001 | 15 | 273 | 1.6 | 6.4 | 0.03 | 0.15 | 0.03 | 76 | 1004.4 |
| 20260505172901 | 15 | 290 | 1.6 | 6.4 | 0.03 | 0.15 | 0.03 | 76 | 1004.3 |
| 20260505172800 | 15 | 302 | 1.6 | 6.4 | 0.03 | 0.15 | 0.03 | 76 | 1004.3 |
| 20260505172700 | 15 | 333 | 1.6 | 6.4 | 0.03 | 0.15 | 0.03 | 76 | 1004.2 |
| 20260505172600 | 15 | 29 | 1.6 | 6.4 | 0.03 | 0.15 | 0.03 | 77 | 1004.2 |
| 20260505172500 | 15 | 34 | 1.6 | 6.4 | 0.03 | 0.15 | 0.03 | 77 | 1004.2 |
| 20260505172400 | 15 | 35 | 1.6 | 6.4 | 0.03 | 0.15 | 0.03 | 77 | 1004.1 |
| 20260505172300 | 15 | 35 | 1.6 | 6.4 | 0.03 | 0.15 | 0.03 | 78 | 1004.1 |
| 20260505172201 | 15 | 35 | 1.6 | 6.4 | 0.03 | 0.15 | 0.03 | 78 | 1004.1 |
| 20260505172101 | 15 | 35 | 3.2 | 12.9 | 0.03 | 0.15 | 0.03 | 77 | 1004.1 |
| 20260505172001 | 15 | 35 | 3.2 | 12.9 | 0.03 | 0.15 | 0.03 | 77 | 1004.1 |
| 20260505171901 | 15 | 35 | 3.2 | 12.9 | 0.03 | 0.15 | 0.03 | 76 | 1004.0 |
| 20260505171800 | 15 | 35 | 3.2 | 12.9 | 0.03 | 0.15 | 0.03 | 77 | 1004.0 |
| 20260505171700 | 15 | 63 | 3.2 | 12.9 | 0.03 | 0.15 | 0.03 | 77 | 1004.0 |
| 20260505171600 | 15 | 55 | 4.8 | 12.9 | 0.03 | 0.15 | 0.03 | 78 | 1004.0 |
| 20260505171501 | 15 | 55 | 4.8 | 12.9 | 0.03 | 0.15 | 0.03 | 78 | 1004.0 |
| 20260505171401 | 15 | 37 | 4.8 | 16.1 | 0.03 | 0.15 | 0.03 | 77 | 1004.0 |
| 20260505171301 | 15 | 342 | 6.4 | 16.1 | 0.03 | 0.15 | 0.03 | 76 | 1004.0 |
| 20260505171202 | 15 | 15 | 6.4 | 16.1 | 0.03 | 0.15 | 0.03 | 76 | 1004.0 |
| 20260505171158 | 15 | 15 | 6.4 | 16.1 | 0.03 | 0.15 | 0.03 | 76 | 1004.0 |
| 20260505171058 | 15 | 43 | 6.4 | 16.1 | 0.03 | 0.15 | 0.03 | 75 | 1004.0 |
| 20260505170959 | 15 | 336 | 6.4 | 16.1 | 0.03 | 0.15 | 0.03 | 75 | 1004.1 |
| 20260505170859 | 15 | 15 | 6.4 | 16.1 | 0.03 | 0.15 | 0.03 | 76 | 1004.0 |
| 20260505170757 | 15 | 18 | 6.4 | 16.1 | 0.03 | 0.15 | 0.03 | 75 | 1004.0 |
| 20260505170700 | 15 | 21 | 6.4 | 16.1 | 0.03 | 0.15 | 0.03 | 76 | 1004.0 |
| 20260505170657 | 15 | 33 | 6.4 | 16.1 | 0.03 | 0.15 | 0.03 | 76 | 1004.0 |
| 20260505170556 | 15 | 40 | 6.4 | 16.1 | 0.03 | 0.15 | 0.03 | 76 | 1004.2 |
| 20260505170457 | 15 | 5 | 4.8 | 16.1 | 0.03 | 0.15 | 0.00 | 75 | 1004.3 |
| 20260505170356 | 15 | 342 | 4.8 | 12.9 | 0.00 | 0.15 | 0.00 | 76 | 1004.3 |
| 20260505170257 | 15 | 348 | 4.8 | 9.7 | 0.00 | 0.15 | 0.00 | 75 | 1004.4 |
| 20260505170200 | 15 | 343 | 4.8 | 9.7 | 0.00 | 0.15 | 0.00 | 74 | 1004.5 |
| 20260505170156 | 15 | 344 | 4.8 | 9.7 | 0.00 | 0.15 | 0.00 | 74 | 1004.5 |
| 20260505170055 | 15 | 333 | 3.2 | 9.7 | 0.00 | 0.15 | 0.00 | 73 | 1004.6 |
| 20260505165951 | 15 | 319 | 3.2 | 9.7 | 0.00 | 0.15 | 0.00 | 73 | 1004.6 |
| 20260505165850 | 15 | 323 | 3.2 | 8.0 | 0.00 | 0.15 | 0.00 | 72 | 1004.7 |
| 20260505165750 | 15 | 314 | 3.2 | 8.0 | 0.00 | 0.15 | 0.00 | 72 | 1004.9 |
| 20260505165701 | 15 | 313 | 3.2 | 8.0 | 0.00 | 0.15 | 0.00 | 72 | 1004.9 |
| 20260505165650 | 15 | 313 | 3.2 | 8.0 | 0.00 | 0.15 | 0.00 | 72 | 1004.9 |
| 20260505165551 | 15 | 303 | 4.8 | 8.0 | 0.00 | 0.15 | 0.00 | 72 | 1004.9 |
| 20260505165446 | 15 | 302 | 4.8 | 8.0 | 0.00 | 0.15 | 0.00 | 72 | 1004.9 |
| 20260505165345 | 15 | 302 | 4.8 | 8.0 | 0.00 | 0.15 | 0.00 | 72 | 1004.9 |
| 20260505165245 | 16 | 292 | 4.8 | 8.0 | 0.00 | 0.15 | 0.00 | 71 | 1004.9 |
| 20260505165201 | 16 | 293 | 4.8 | 9.7 | 0.00 | 0.15 | 0.00 | 71 | 1004.9 |
| 20260505165145 | 16 | 294 | 4.8 | 9.7 | 0.00 | 0.15 | 0.00 | 70 | 1005.0 |
| 20260505165043 | 16 | 299 | 4.8 | 9.7 | 0.00 | 0.15 | 0.00 | 71 | 1005.0 |
| 20260505164941 | 16 | 300 | 4.8 | 9.7 | 0.00 | 0.15 | 0.00 | 71 | 1005.0 |
| 20260505164839 | 16 | 304 | 4.8 | 9.7 | 0.00 | 0.15 | 0.00 | 71 | 1005.0 |
| 20260505164739 | 16 | 290 | 4.8 | 9.7 | 0.00 | 0.15 | 0.00 | 71 | 1005.0 |
| 20260505164701 | 16 | 290 | 4.8 | 9.7 | 0.00 | 0.15 | 0.00 | 71 | 1005.0 |
| 20260505164638 | 16 | 311 | 4.8 | 9.7 | 0.00 | 0.15 | 0.00 | 71 | 1005.0 |
| 20260505164537 | 16 | 292 | 4.8 | 9.7 | 0.00 | 0.15 | 0.00 | 71 | 1005.0 |
| 20260505164432 | 16 | 304 | 4.8 | 11.3 | 0.00 | 0.15 | 0.00 | 71 | 1005.0 |
| 20260505164332 | 16 | 298 | 4.8 | 11.3 | 0.00 | 0.15 | 0.00 | 70 | 1005.0 |
| 20260505164232 | 16 | 281 | 4.8 | 11.3 | 0.00 | 0.15 | 0.00 | 69 | 1005.0 |
| 20260505164201 | 16 | 302 | 4.8 | 11.3 | 0.00 | 0.15 | 0.00 | 68 | 1005.0 |
| 20260505164133 | 16 | 291 | 4.8 | 11.3 | 0.00 | 0.15 | 0.00 | 68 | 1005.1 |
| 20260505164035 | 16 | 295 | 4.8 | 11.3 | 0.00 | 0.15 | 0.00 | 68 | 1005.1 |
| 20260505163932 | 16 | 277 | 4.8 | 11.3 | 0.00 | 0.15 | 0.00 | 67 | 1005.1 |
| 20260505163832 | 16 | 299 | 4.8 | 11.3 | 0.00 | 0.15 | 0.00 | 67 | 1005.1 |
| 20260505163733 | 16 | 265 | 4.8 | 11.3 | 0.00 | 0.15 | 0.00 | 66 | 1005.0 |
| 20260505163700 | 16 | 290 | 4.8 | 11.3 | 0.00 | 0.15 | 0.00 | 66 | 1005.0 |
| 20260505163634 | 16 | 290 | 4.8 | 11.3 | 0.00 | 0.15 | 0.00 | 67 | 1005.0 |
| 20260505163530 | 16 | 288 | 4.8 | 11.3 | 0.00 | 0.15 | 0.00 | 66 | 1005.0 |
| 20260505163430 | 16 | 278 | 4.8 | 8.0 | 0.00 | 0.15 | 0.00 | 67 | 1005.0 |
| 20260505163330 | 16 | 297 | 4.8 | 9.7 | 0.00 | 0.15 | 0.00 | 67 | 1005.0 |
| 20260505163230 | 16 | 304 | 4.8 | 9.7 | 0.00 | 0.15 | 0.00 | 67 | 1005.0 |
| 20260505163201 | 16 | 294 | 4.8 | 9.7 | 0.00 | 0.15 | 0.00 | 67 | 1005.0 |
| 20260505163130 | 16 | 298 | 4.8 | 9.7 | 0.00 | 0.15 | 0.00 | 67 | 1005.0 |
| 20260505163030 | 16 | 295 | 4.8 | 9.7 | 0.00 | 0.15 | 0.00 | 66 | 1005.0 |
| 20260505162929 | 16 | 289 | 4.8 | 9.7 | 0.00 | 0.15 | 0.00 | 66 | 1004.9 |
| 20260505162829 | 16 | 292 | 4.8 | 9.7 | 0.00 | 0.15 | 0.00 | 66 | 1005.0 |
| 20260505162729 | 16 | 281 | 4.8 | 9.7 | 0.00 | 0.15 | 0.00 | 66 | 1004.9 |
| 20260505162655 | 16 | 292 | 4.8 | 9.7 | 0.00 | 0.15 | 0.00 | 65 | 1005.0 |
| 20260505162629 | 16 | 319 | 4.8 | 9.7 | 0.00 | 0.15 | 0.00 | 65 | 1005.0 |
| 20260505162529 | 16 | 303 | 4.8 | 9.7 | 0.00 | 0.15 | 0.00 | 66 | 1004.9 |
| 20260505162429 | 16 | 336 | 4.8 | 11.3 | 0.00 | 0.15 | 0.00 | 65 | 1004.9 |
| 20260505162329 | 16 | 304 | 4.8 | 12.9 | 0.00 | 0.15 | 0.00 | 66 | 1004.9 |
| 20260505162229 | 16 | 306 | 4.8 | 12.9 | 0.00 | 0.15 | 0.00 | 66 | 1004.9 |
| 20260505162150 | 16 | 298 | 4.8 | 12.9 | 0.00 | 0.15 | 0.00 | 66 | 1005.0 |
| 20260505162130 | 16 | 292 | 4.8 | 12.9 | 0.00 | 0.15 | 0.00 | 66 | 1005.0 |
| 20260505162028 | 16 | 294 | 4.8 | 12.9 | 0.00 | 0.15 | 0.00 | 65 | 1005.0 |
| 20260505161928 | 16 | 298 | 4.8 | 12.9 | 0.00 | 0.15 | 0.00 | 65 | 1005.0 |
| 20260505161826 | 16 | 288 | 4.8 | 12.9 | 0.00 | 0.15 | 0.00 | 66 | 1005.0 |
| 20260505161723 | 16 | 297 | 4.8 | 12.9 | 0.00 | 0.15 | 0.00 | 67 | 1005.0 |
| 20260505161644 | 16 | 287 | 4.8 | 12.9 | 0.00 | 0.15 | 0.00 | 67 | 1005.1 |
| 20260505161622 | 16 | 292 | 4.8 | 12.9 | 0.00 | 0.15 | 0.00 | 67 | 1005.1 |
| 20260505161522 | 16 | 296 | 6.4 | 12.9 | 0.00 | 0.15 | 0.00 | 67 | 1005.1 |
| 20260505161421 | 16 | 317 | 6.4 | 12.9 | 0.00 | 0.15 | 0.00 | 68 | 1005.1 |
| 20260505161320 | 16 | 300 | 6.4 | 11.3 | 0.00 | 0.15 | 0.00 | 68 | 1005.1 |
| 20260505161217 | 16 | 304 | 6.4 | 12.9 | 0.00 | 0.15 | 0.00 | 68 | 1005.1 |
| 20260505161138 | 16 | 295 | 6.4 | 12.9 | 0.00 | 0.15 | 0.00 | 67 | 1005.1 |
| 20260505161114 | 16 | 322 | 6.4 | 14.5 | 0.00 | 0.15 | 0.00 | 67 | 1005.1 |
| 20260505161014 | 16 | 291 | 6.4 | 14.5 | 0.00 | 0.15 | 0.00 | 67 | 1005.1 |
| 20260505160914 | 16 | 267 | 6.4 | 14.5 | 0.00 | 0.15 | 0.00 | 68 | 1005.1 |
| 20260505160854 | 16 | 308 | 6.4 | 14.5 | 0.00 | 0.15 | 0.00 | 68 | 1005.1 |
| 20260505160847 | 16 | 299 | 6.4 | 14.5 | 0.00 | 0.15 | 0.00 | 68 | 1005.1 |
| 20260505160843 | 16 | 273 | 6.4 | 14.5 | 0.00 | 0.15 | 0.00 | 68 | 1005.1 |
| 20260505160611 | 16 | 294 | 6.4 | 14.5 | 0.00 | 0.15 | 0.00 | 68 | 1005.1 |
| 20260505160510 | 16 | 268 | 6.4 | 14.5 | 0.00 | 0.15 | 0.00 | 68 | 1005.2 |
| 20260505160410 | 16 | 304 | 6.4 | 14.5 | 0.00 | 0.15 | 0.00 | 68 | 1005.1 |
| 20260505160307 | 16 | 296 | 6.4 | 14.5 | 0.00 | 0.15 | 0.00 | 68 | 1005.1 |
| 20260505160204 | 16 | 312 | 6.4 | 14.5 | 0.00 | 0.15 | 0.00 | 68 | 1005.1 |
| 20260505160130 | 16 | 288 | 6.4 | 14.5 | 0.00 | 0.15 | 0.00 | 68 | 1005.1 |
| 20260505153352 | 17 | 288 | 8.0 | 16.1 | 0.00 | 0.15 | 0.00 | 66 | 1004.9 |
| 20260505153250 | 17 | 291 | 8.0 | 16.1 | 0.00 | 0.15 | 0.00 | 66 | 1004.7 |
| 20260505153150 | 17 | 302 | 9.7 | 16.1 | 0.00 | 0.15 | 0.00 | 66 | 1004.9 |
| 20260505153130 | 17 | 285 | 9.7 | 16.1 | 0.00 | 0.15 | 0.00 | 66 | 1004.9 |
| 20260505153050 | 17 | 294 | 9.7 | 16.1 | 0.00 | 0.15 | 0.00 | 66 | 1004.9 |
| 20260505152944 | 17 | 312 | 9.7 | 17.7 | 0.00 | 0.15 | 0.00 | 65 | 1004.7 |
| 20260505152845 | 17 | 266 | 9.7 | 17.7 | 0.00 | 0.15 | 0.00 | 65 | 1004.9 |
| 20260505152744 | 17 | 321 | 9.7 | 17.7 | 0.00 | 0.15 | 0.00 | 65 | 1004.9 |
| 20260505152644 | 17 | 314 | 9.7 | 17.7 | 0.00 | 0.15 | 0.00 | 65 | 1004.7 |
| 20260505152630 | 17 | 319 | 9.7 | 17.7 | 0.00 | 0.15 | 0.00 | 65 | 1004.7 |
| 20260505152543 | 17 | 283 | 9.7 | 17.7 | 0.00 | 0.15 | 0.00 | 65 | 1004.7 |
| 20260505152438 | 17 | 309 | 9.7 | 17.7 | 0.00 | 0.15 | 0.00 | 64 | 1004.7 |
| 20260505152354 | 17 | 323 | 8.0 | 17.7 | 0.00 | 0.15 | 0.00 | 64 | 1005.0 |
| 20260505152350 | 17 | 294 | 9.7 | 17.7 | 0.00 | 0.15 | 0.00 | 64 | 1004.7 |
| 20260505152346 | 17 | 292 | 8.0 | 17.7 | 0.00 | 0.15 | 0.00 | 64 | 1004.9 |
| 20260505152342 | 17 | 296 | 8.0 | 17.7 | 0.00 | 0.15 | 0.00 | 64 | 1005.0 |
| 20260505152123 | 17 | 292 | 6.4 | 14.5 | 0.00 | 0.15 | 0.00 | 64 | 1004.9 |
| 20260505152111 | 17 | 301 | 8.0 | 16.1 | 0.00 | 0.15 | 0.00 | 64 | 1004.9 |
| 20260505151849 | 17 | 295 | 8.0 | 14.5 | 0.00 | 0.15 | 0.00 | 64 | 1004.9 |
| 20260505151845 | 17 | 344 | 6.4 | 14.5 | 0.00 | 0.15 | 0.00 | 65 | 1004.9 |
| 20260505151841 | 17 | 270 | 6.4 | 14.5 | 0.00 | 0.15 | 0.00 | 64 | 1004.9 |
| 20260505151535 | 17 | 290 | 6.4 | 14.5 | 0.00 | 0.15 | 0.00 | 65 | 1004.9 |
| 20260505151434 | 17 | 298 | 6.4 | 14.5 | 0.00 | 0.15 | 0.00 | 65 | 1004.9 |
| 20260505151334 | 17 | 296 | 6.4 | 14.5 | 0.00 | 0.15 | 0.00 | 65 | 1004.9 |
| 20260505151234 | 17 | 292 | 6.4 | 14.5 | 0.00 | 0.15 | 0.00 | 64 | 1004.9 |
| 20260505151134 | 17 | 314 | 6.4 | 14.5 | 0.00 | 0.15 | 0.00 | 64 | 1004.9 |
| 20260505151130 | 17 | 307 | 6.4 | 14.5 | 0.00 | 0.15 | 0.00 | 64 | 1004.9 |
| 20260505151034 | 17 | 319 | 6.4 | 14.5 | 0.00 | 0.15 | 0.00 | 64 | 1004.9 |
| 20260505150934 | 17 | 326 | 6.4 | 14.5 | 0.00 | 0.15 | 0.00 | 64 | 1004.9 |
| 20260505150832 | 16 | 321 | 6.4 | 14.5 | 0.00 | 0.15 | 0.00 | 65 | 1004.9 |
| 20260505150732 | 16 | 313 | 6.4 | 14.5 | 0.00 | 0.15 | 0.00 | 64 | 1004.9 |
| 20260505150635 | 16 | 312 | 6.4 | 14.5 | 0.00 | 0.15 | 0.00 | 64 | 1004.9 |
| 20260505150630 | 16 | 303 | 6.4 | 14.5 | 0.00 | 0.15 | 0.00 | 64 | 1004.9 |
| 20260505150530 | 16 | 296 | 6.4 | 14.5 | 0.00 | 0.15 | 0.00 | 65 | 1004.9 |
| 20260505150432 | 16 | 292 | 4.8 | 14.5 | 0.00 | 0.15 | 0.00 | 65 | 1004.9 |
| 20260505150330 | 16 | 320 | 4.8 | 12.9 | 0.00 | 0.15 | 0.00 | 65 | 1004.9 |
| 20260505150230 | 16 | 298 | 4.8 | 12.9 | 0.00 | 0.15 | 0.00 | 65 | 1004.9 |
| 20260505150129 | 16 | 326 | 4.8 | 9.7 | 0.00 | 0.15 | 0.00 | 65 | 1004.9 |
| 20260505140629 | 17 | 309 | 6.4 | 16.1 | 0.00 | 0.15 | 0.00 | 61 | 1004.9 |
| 20260505140549 | 17 | 303 | 8.0 | 16.1 | 0.00 | 0.15 | 0.00 | 61 | 1005.0 |
| 20260505140444 | 17 | 298 | 8.0 | 16.1 | 0.00 | 0.15 | 0.00 | 61 | 1004.9 |
| 20260505140343 | 17 | 290 | 8.0 | 16.1 | 0.00 | 0.15 | 0.00 | 61 | 1004.9 |
| 20260505140244 | 17 | 331 | 8.0 | 16.1 | 0.00 | 0.15 | 0.00 | 61 | 1004.9 |
| 20260505140144 | 17 | 286 | 8.0 | 16.1 | 0.00 | 0.15 | 0.00 | 61 | 1004.9 |
| 20260505140129 | 17 | 304 | 8.0 | 16.1 | 0.00 | 0.15 | 0.00 | 61 | 1004.9 |